Wetterdaten: Freitag, 24.10.2014
Datum Zeit Temp. Aussen +5cm Feuchte Auss Luftdruck Regen Sonnenschein Regendauer Solar Windben
24.10.2014 00:00 11,7 C 10,6 C 89 % 1022,2 hPa 0,0 l/m 0 min 0 min 0 W/m 18,8 km/h (3 Bft)
24.10.2014 00:02 11,7 C 10,6 C 89 % 1022,2 hPa 0,0 l/m 0 min 0 min 0 W/m 14,6 km/h (3 Bft)
24.10.2014 00:05 11,7 C 10,6 C 89 % 1022,1 hPa 0,0 l/m 0 min 0 min 0 W/m 14,6 km/h (3 Bft)
24.10.2014 00:06 11,7 C 10,6 C 89 % 1022,1 hPa 0,0 l/m 0 min 0 min 0 W/m 14,6 km/h (3 Bft)
24.10.2014 00:08 11,7 C 10,6 C 89 % 1022,0 hPa 0,0 l/m 0 min 0 min 0 W/m 16,7 km/h (3 Bft)
24.10.2014 00:10 11,7 C 10,6 C 89 % 1022,1 hPa 0,0 l/m 0 min 0 min 0 W/m 14,6 km/h (3 Bft)
24.10.2014 00:12 11,7 C 10,6 C 89 % 1022,1 hPa 0,0 l/m 0 min 0 min 0 W/m 14,6 km/h (3 Bft)
24.10.2014 00:14 11,7 C 10,6 C 89 % 1022,1 hPa 0,0 l/m 0 min 0 min 0 W/m 14,6 km/h (3 Bft)
24.10.2014 00:16 11,7 C 10,6 C 89 % 1022,1 hPa 0,0 l/m 0 min 0 min 0 W/m 12,6 km/h (3 Bft)
24.10.2014 00:18 11,7 C 10,6 C 89 % 1022,1 hPa 0,0 l/m 0 min 0 min 0 W/m 18,8 km/h (3 Bft)
24.10.2014 00:20 11,7 C 10,6 C 89 % 1022,1 hPa 0,0 l/m 0 min 0 min 0 W/m 10,5 km/h (2 Bft)
24.10.2014 00:22 11,7 C 10,6 C 89 % 1022,1 hPa 0,0 l/m 0 min 0 min 0 W/m 10,5 km/h (2 Bft)
24.10.2014 00:24 11,7 C 10,6 C 89 % 1022,1 hPa 0,0 l/m 0 min 0 min 0 W/m 23,0 km/h (4 Bft)
24.10.2014 00:26 11,6 C 10,6 C 89 % 1022,0 hPa 0,0 l/m 0 min 0 min 0 W/m 12,6 km/h (3 Bft)
24.10.2014 00:28 11,6 C 10,6 C 89 % 1022,0 hPa 0,0 l/m 0 min 0 min 0 W/m 16,7 km/h (3 Bft)
24.10.2014 00:30 11,6 C 10,6 C 89 % 1022,0 hPa 0,0 l/m 0 min 0 min 0 W/m 14,6 km/h (3 Bft)
24.10.2014 00:32 11,6 C 10,6 C 89 % 1022,0 hPa 0,0 l/m 0 min 0 min 0 W/m 16,7 km/h (3 Bft)
24.10.2014 00:34 11,6 C 10,6 C 89 % 1021,9 hPa 0,0 l/m 0 min 0 min 0 W/m 14,6 km/h (3 Bft)
24.10.2014 00:36 11,6 C 10,6 C 89 % 1022,0 hPa 0,0 l/m 0 min 0 min 0 W/m 12,6 km/h (3 Bft)
24.10.2014 00:38 11,6 C 10,6 C 89 % 1022,0 hPa 0,0 l/m 0 min 0 min 0 W/m 10,5 km/h (2 Bft)
24.10.2014 00:40 11,6 C 10,6 C 89 % 1021,9 hPa 0,0 l/m 0 min 0 min 0 W/m 10,5 km/h (2 Bft)
24.10.2014 00:42 11,6 C 10,6 C 89 % 1021,9 hPa 0,0 l/m 0 min 0 min 0 W/m 16,7 km/h (3 Bft)
24.10.2014 00:44 11,6 C 10,6 C 89 % 1022,0 hPa 0,0 l/m 0 min 0 min 0 W/m 14,6 km/h (3 Bft)
24.10.2014 00:46 11,6 C 10,6 C 89 % 1022,0 hPa 0,0 l/m 0 min 0 min 0 W/m 12,6 km/h (3 Bft)
24.10.2014 00:48 11,6 C 10,6 C 89 % 1022,0 hPa 0,0 l/m 0 min 0 min 0 W/m 12,6 km/h (3 Bft)
24.10.2014 00:50 11,6 C 10,6 C 89 % 1022,0 hPa 0,0 l/m 0 min 0 min 0 W/m 6,3 km/h (2 Bft)
24.10.2014 00:52 11,6 C 10,6 C 89 % 1022,0 hPa 0,0 l/m 0 min 0 min 0 W/m 14,6 km/h (3 Bft)
24.10.2014 00:54 11,6 C 10,6 C 89 % 1022,0 hPa 0,0 l/m 0 min 0 min 0 W/m 8,4 km/h (2 Bft)
24.10.2014 00:56 11,6 C 10,6 C 89 % 1022,0 hPa 0,0 l/m 0 min 0 min 0 W/m 14,6 km/h (3 Bft)
24.10.2014 00:58 11,6 C 10,6 C 89 % 1022,0 hPa 0,0 l/m 0 min 0 min 0 W/m 16,7 km/h (3 Bft)
24.10.2014 01:00 11,6 C 10,6 C 89 % 1022,0 hPa 0,0 l/m 0 min 0 min 0 W/m 12,6 km/h (3 Bft)
24.10.2014 01:02 11,6 C 10,6 C 89 % 1022,0 hPa 0,0 l/m 0 min 0 min 0 W/m 14,6 km/h (3 Bft)
24.10.2014 01:04 11,6 C 10,6 C 89 % 1022,0 hPa 0,0 l/m 0 min 0 min 0 W/m 12,6 km/h (3 Bft)
24.10.2014 01:06 11,6 C 10,6 C 89 % 1022,0 hPa 0,0 l/m 0 min 0 min 0 W/m 12,6 km/h (3 Bft)
24.10.2014 01:08 11,6 C 10,6 C 89 % 1021,9 hPa 0,0 l/m 0 min 0 min 0 W/m 10,5 km/h (2 Bft)
24.10.2014 01:10 11,6 C 10,6 C 89 % 1022,0 hPa 0,0 l/m 0 min 0 min 0 W/m 16,7 km/h (3 Bft)
24.10.2014 01:12 11,6 C 10,6 C 89 % 1022,0 hPa 0,0 l/m 0 min 0 min 0 W/m 10,5 km/h (2 Bft)
24.10.2014 01:14 11,6 C 10,6 C 89 % 1022,0 hPa 0,0 l/m 0 min 0 min 0 W/m 10,5 km/h (2 Bft)
24.10.2014 01:16 11,6 C 10,6 C 89 % 1022,0 hPa 0,0 l/m 0 min 0 min 0 W/m 14,6 km/h (3 Bft)
24.10.2014 01:18 11,6 C 10,6 C 89 % 1021,9 hPa 0,0 l/m 0 min 0 min 0 W/m 10,5 km/h (2 Bft)
24.10.2014 01:20 11,6 C 10,6 C 89 % 1021,9 hPa 0,0 l/m 0 min 0 min 0 W/m 12,6 km/h (3 Bft)
24.10.2014 01:22 11,6 C 10,6 C 89 % 1021,9 hPa 0,0 l/m 0 min 0 min 0 W/m 10,5 km/h (2 Bft)
24.10.2014 01:24 11,6 C 10,6 C 89 % 1021,9 hPa 0,0 l/m 0 min 0 min 0 W/m 8,4 km/h (2 Bft)
24.10.2014 01:26 11,6 C 10,6 C 89 % 1021,9 hPa 0,0 l/m 0 min 0 min 0 W/m 6,3 km/h (2 Bft)
24.10.2014 01:28 11,6 C 10,6 C 89 % 1021,9 hPa 0,0 l/m 0 min 0 min 0 W/m 10,5 km/h (2 Bft)
24.10.2014 01:30 11,6 C 10,6 C 89 % 1021,9 hPa 0,0 l/m 0 min 0 min 0 W/m 8,4 km/h (2 Bft)
24.10.2014 01:32 11,6 C 10,6 C 89 % 1021,9 hPa 0,0 l/m 0 min 0 min 0 W/m 10,5 km/h (2 Bft)
24.10.2014 01:34 11,6 C 10,6 C 89 % 1021,9 hPa 0,0 l/m 0 min 0 min 0 W/m 12,6 km/h (3 Bft)
24.10.2014 01:36 11,6 C 10,6 C 89 % 1021,9 hPa 0,0 l/m 0 min 0 min 0 W/m 6,3 km/h (2 Bft)
24.10.2014 01:38 11,6 C 10,6 C 89 % 1021,8 hPa 0,0 l/m 0 min 0 min 0 W/m 10,5 km/h (2 Bft)
24.10.2014 01:40 11,6 C 10,6 C 89 % 1021,8 hPa 0,0 l/m 0 min 0 min 0 W/m 10,5 km/h (2 Bft)
24.10.2014 01:42 11,6 C 10,6 C 89 % 1021,8 hPa 0,0 l/m 0 min 0 min 0 W/m 8,4 km/h (2 Bft)
24.10.2014 01:44 11,6 C 10,6 C 89 % 1021,7 hPa 0,0 l/m 0 min 0 min 0 W/m 6,3 km/h (2 Bft)
24.10.2014 01:46 11,6 C 10,6 C 89 % 1021,7 hPa 0,0 l/m 0 min 0 min 0 W/m 14,6 km/h (3 Bft)
24.10.2014 01:48 11,6 C 10,6 C 89 % 1021,7 hPa 0,0 l/m 0 min 0 min 0 W/m 10,5 km/h (2 Bft)
24.10.2014 01:50 11,6 C 10,6 C 89 % 1021,7 hPa 0,0 l/m 0 min 0 min 0 W/m 8,4 km/h (2 Bft)
24.10.2014 01:52 11,6 C 10,6 C 89 % 1021,7 hPa 0,0 l/m 0 min 0 min 0 W/m 12,6 km/h (3 Bft)
24.10.2014 01:54 11,6 C 10,6 C 89 % 1021,7 hPa 0,0 l/m 0 min 0 min 0 W/m 12,6 km/h (3 Bft)
24.10.2014 01:56 11,6 C 10,6 C 89 % 1021,7 hPa 0,0 l/m 0 min 0 min 0 W/m 10,5 km/h (2 Bft)
24.10.2014 01:58 11,6 C 10,6 C 89 % 1021,6 hPa 0,0 l/m 0 min 0 min 0 W/m 12,6 km/h (3 Bft)
24.10.2014 02:00 11,6 C 10,6 C 89 % 1021,6 hPa 0,0 l/m 0 min 0 min 0 W/m 8,4 km/h (2 Bft)
24.10.2014 02:02 11,6 C 10,6 C 89 % 1021,6 hPa 0,0 l/m 0 min 0 min 0 W/m 8,4 km/h (2 Bft)
24.10.2014 02:04 11,6 C 10,6 C 89 % 1021,6 hPa 0,0 l/m 0 min 0 min 0 W/m 6,3 km/h (2 Bft)
24.10.2014 02:06 11,6 C 10,6 C 89 % 1021,5 hPa 0,0 l/m 0 min 0 min 0 W/m 12,6 km/h (3 Bft)
24.10.2014 02:08 11,6 C 10,6 C 89 % 1021,5 hPa 0,0 l/m 0 min 0 min 0 W/m 14,6 km/h (3 Bft)
24.10.2014 02:10 11,6 C 10,6 C 89 % 1021,6 hPa 0,0 l/m 0 min 0 min 0 W/m 10,5 km/h (2 Bft)
24.10.2014 02:12 11,6 C 10,6 C 89 % 1021,5 hPa 0,0 l/m 0 min 0 min 0 W/m 12,6 km/h (3 Bft)
24.10.2014 02:14 11,6 C 10,6 C 89 % 1021,5 hPa 0,0 l/m 0 min 0 min 0 W/m 14,6 km/h (3 Bft)
24.10.2014 02:16 11,6 C 10,6 C 89 % 1021,5 hPa 0,0 l/m 0 min 0 min 0 W/m 8,4 km/h (2 Bft)
24.10.2014 02:18 11,6 C 10,6 C 89 % 1021,6 hPa 0,0 l/m 0 min 0 min 0 W/m 14,6 km/h (3 Bft)
24.10.2014 02:20 11,6 C 10,6 C 89 % 1021,6 hPa 0,0 l/m 0 min 0 min 0 W/m 10,5 km/h (2 Bft)
24.10.2014 02:22 11,6 C 10,6 C 89 % 1021,5 hPa 0,0 l/m 0 min 0 min 0 W/m 12,6 km/h (3 Bft)
24.10.2014 02:24 11,6 C 10,6 C 89 % 1021,6 hPa 0,0 l/m 0 min 0 min 0 W/m 12,6 km/h (3 Bft)
24.10.2014 02:26 11,6 C 10,6 C 89 % 1021,5 hPa 0,0 l/m 0 min 0 min 0 W/m 12,6 km/h (3 Bft)
24.10.2014 02:28 11,6 C 10,6 C 89 % 1021,5 hPa 0,0 l/m 0 min 0 min 0 W/m 12,6 km/h (3 Bft)
24.10.2014 02:30 11,6 C 10,6 C 89 % 1021,5 hPa 0,0 l/m 0 min 0 min 0 W/m 12,6 km/h (3 Bft)
24.10.2014 02:32 11,6 C 10,6 C 89 % 1021,4 hPa 0,0 l/m 0 min 0 min 0 W/m 10,5 km/h (2 Bft)
24.10.2014 02:34 11,6 C 10,6 C 89 % 1021,6 hPa 0,0 l/m 0 min 0 min 0 W/m 10,5 km/h (2 Bft)
24.10.2014 02:36 11,6 C 10,6 C 89 % 1021,5 hPa 0,0 l/m 0 min 0 min 0 W/m 10,5 km/h (2 Bft)
24.10.2014 02:38 11,6 C 10,6 C 89 % 1021,5 hPa 0,0 l/m 0 min 0 min 0 W/m 14,6 km/h (3 Bft)
24.10.2014 02:40 11,6 C 10,6 C 89 % 1021,6 hPa 0,0 l/m 0 min 0 min 0 W/m 12,6 km/h (3 Bft)
24.10.2014 02:42 11,6 C 10,6 C 89 % 1021,5 hPa 0,0 l/m 0 min 0 min 0 W/m 14,6 km/h (3 Bft)
24.10.2014 02:44 11,6 C 10,6 C 89 % 1021,4 hPa 0,0 l/m 0 min 0 min 0 W/m 20,9 km/h (4 Bft)
24.10.2014 02:46 11,6 C 10,6 C 89 % 1021,5 hPa 0,0 l/m 0 min 0 min 0 W/m 12,6 km/h (3 Bft)
24.10.2014 02:48 11,6 C 10,6 C 89 % 1021,4 hPa 0,0 l/m 0 min 0 min 0 W/m 14,6 km/h (3 Bft)
24.10.2014 02:50 11,6 C 10,6 C 89 % 1021,5 hPa 0,0 l/m 0 min 0 min 0 W/m 10,5 km/h (2 Bft)
24.10.2014 02:52 11,6 C 10,6 C 89 % 1021,5 hPa 0,0 l/m 0 min 0 min 0 W/m 12,6 km/h (3 Bft)
24.10.2014 02:54 11,6 C 10,6 C 89 % 1021,5 hPa 0,0 l/m 0 min 0 min 0 W/m 16,7 km/h (3 Bft)
24.10.2014 02:56 11,6 C 10,6 C 89 % 1021,5 hPa 0,0 l/m 0 min 0 min 0 W/m 12,6 km/h (3 Bft)
24.10.2014 02:58 11,6 C 10,6 C 89 % 1021,4 hPa 0,0 l/m 0 min 0 min 0 W/m 18,8 km/h (3 Bft)
24.10.2014 03:00 11,6 C 10,6 C 88 % 1021,5 hPa 0,0 l/m 0 min 0 min 0 W/m 12,6 km/h (3 Bft)
24.10.2014 03:02 11,6 C 10,6 C 88 % 1021,5 hPa 0,0 l/m 0 min 0 min 0 W/m 10,5 km/h (2 Bft)
24.10.2014 03:04 11,6 C 10,6 C 88 % 1021,5 hPa 0,0 l/m 0 min 0 min 0 W/m 12,6 km/h (3 Bft)
24.10.2014 03:06 11,6 C 10,6 C 88 % 1021,5 hPa 0,0 l/m 0 min 0 min 0 W/m 12,6 km/h (3 Bft)
24.10.2014 03:08 11,6 C 10,6 C 88 % 1021,5 hPa 0,0 l/m 0 min 0 min 0 W/m 14,6 km/h (3 Bft)
24.10.2014 03:10 11,6 C 10,6 C 88 % 1021,5 hPa 0,0 l/m 0 min 0 min 0 W/m 12,6 km/h (3 Bft)
24.10.2014 03:12 11,6 C 10,6 C 88 % 1021,5 hPa 0,0 l/m 0 min 0 min 0 W/m 8,4 km/h (2 Bft)
24.10.2014 03:14 11,6 C 10,6 C 88 % 1021,4 hPa 0,0 l/m 0 min 0 min 0 W/m 8,4 km/h (2 Bft)
24.10.2014 03:16 11,6 C 10,6 C 88 % 1021,4 hPa 0,0 l/m 0 min 0 min 0 W/m 10,5 km/h (2 Bft)
24.10.2014 03:18 11,7 C 10,6 C 88 % 1021,3 hPa 0,0 l/m 0 min 0 min 0 W/m 18,8 km/h (3 Bft)
24.10.2014 03:20 11,7 C 10,6 C 88 % 1021,3 hPa 0,0 l/m 0 min 0 min 0 W/m 16,7 km/h (3 Bft)
24.10.2014 03:22 11,6 C 10,6 C 88 % 1021,3 hPa 0,0 l/m 0 min 0 min 0 W/m 18,8 km/h (3 Bft)
24.10.2014 03:24 11,6 C 10,6 C 88 % 1021,4 hPa 0,0 l/m 0 min 0 min 0 W/m 14,6 km/h (3 Bft)
24.10.2014 03:26 11,6 C 10,6 C 88 % 1021,3 hPa 0,0 l/m 0 min 0 min 0 W/m 10,5 km/h (2 Bft)
24.10.2014 03:28 11,7 C 10,6 C 88 % 1021,4 hPa 0,0 l/m 0 min 0 min 0 W/m 14,6 km/h (3 Bft)
24.10.2014 03:30 11,7 C 10,6 C 88 % 1021,4 hPa 0,0 l/m 0 min 0 min 0 W/m 14,6 km/h (3 Bft)
24.10.2014 03:32 11,7 C 10,6 C 88 % 1021,3 hPa 0,0 l/m 0 min 0 min 0 W/m 10,5 km/h (2 Bft)
24.10.2014 03:34 11,6 C 10,6 C 88 % 1021,3 hPa 0,0 l/m 0 min 0 min 0 W/m 10,5 km/h (2 Bft)
24.10.2014 03:36 11,6 C 10,6 C 88 % 1021,4 hPa 0,0 l/m 0 min 0 min 0 W/m 8,4 km/h (2 Bft)
24.10.2014 03:38 11,6 C 10,6 C 88 % 1021,3 hPa 0,0 l/m 0 min 0 min 0 W/m 10,5 km/h (2 Bft)
24.10.2014 03:40 11,6 C 10,6 C 88 % 1021,3 hPa 0,0 l/m 0 min 0 min 0 W/m 14,6 km/h (3 Bft)
24.10.2014 03:42 11,6 C 10,6 C 88 % 1021,3 hPa 0,0 l/m 0 min 0 min 0 W/m 16,7 km/h (3 Bft)
24.10.2014 03:44 11,6 C 10,6 C 88 % 1021,3 hPa 0,0 l/m 0 min 0 min 0 W/m 14,6 km/h (3 Bft)
24.10.2014 03:46 11,6 C 10,6 C 88 % 1021,3 hPa 0,0 l/m 0 min 0 min 0 W/m 10,5 km/h (2 Bft)
24.10.2014 03:48 11,6 C 10,6 C 87 % 1021,2 hPa 0,0 l/m 0 min 0 min 0 W/m 12,6 km/h (3 Bft)
24.10.2014 03:50 11,6 C 10,6 C 87 % 1021,2 hPa 0,0 l/m 0 min 0 min 0 W/m 10,5 km/h (2 Bft)
24.10.2014 03:52 11,6 C 10,6 C 87 % 1021,2 hPa 0,0 l/m 0 min 0 min 0 W/m 12,6 km/h (3 Bft)
24.10.2014 03:54 11,6 C 10,6 C 87 % 1021,2 hPa 0,0 l/m 0 min 0 min 0 W/m 10,5 km/h (2 Bft)
24.10.2014 03:56 11,6 C 10,6 C 87 % 1021,2 hPa 0,0 l/m 0 min 0 min 0 W/m 14,6 km/h (3 Bft)
24.10.2014 03:58 11,7 C 10,6 C 87 % 1021,2 hPa 0,0 l/m 0 min 0 min 0 W/m 10,5 km/h (2 Bft)
24.10.2014 04:00 11,6 C 10,6 C 87 % 1021,2 hPa 0,0 l/m 0 min 0 min 0 W/m 14,6 km/h (3 Bft)
24.10.2014 04:02 11,6 C 10,6 C 87 % 1021,2 hPa 0,0 l/m 0 min 0 min 0 W/m 8,4 km/h (2 Bft)
24.10.2014 04:04 11,7 C 10,6 C 87 % 1021,2 hPa 0,0 l/m 0 min 0 min 0 W/m 14,6 km/h (3 Bft)
24.10.2014 04:06 11,7 C 10,6 C 87 % 1021,1 hPa 0,0 l/m 0 min 0 min 0 W/m 12,6 km/h (3 Bft)
24.10.2014 04:08 11,7 C 10,6 C 87 % 1021,1 hPa 0,0 l/m 0 min 0 min 0 W/m 16,7 km/h (3 Bft)
24.10.2014 04:10 11,6 C 10,6 C 87 % 1021,1 hPa 0,0 l/m 0 min 0 min 0 W/m 12,6 km/h (3 Bft)
24.10.2014 04:12 11,7 C 10,6 C 87 % 1021,1 hPa 0,0 l/m 0 min 0 min 0 W/m 10,5 km/h (2 Bft)
24.10.2014 04:14 11,6 C 10,6 C 87 % 1021,1 hPa 0,0 l/m 0 min 0 min 0 W/m 10,5 km/h (2 Bft)
24.10.2014 04:16 11,7 C 10,6 C 87 % 1021,1 hPa 0,0 l/m 0 min 0 min 0 W/m 10,5 km/h (2 Bft)
24.10.2014 04:18 11,7 C 10,6 C 87 % 1021,1 hPa 0,0 l/m 0 min 0 min 0 W/m 12,6 km/h (3 Bft)
24.10.2014 04:20 11,7 C 10,6 C 87 % 1021,1 hPa 0,0 l/m 0 min 0 min 0 W/m 10,5 km/h (2 Bft)
24.10.2014 04:22 11,6 C 10,6 C 87 % 1021,1 hPa 0,0 l/m 0 min 0 min 0 W/m 10,5 km/h (2 Bft)
24.10.2014 04:24 11,7 C 10,6 C 87 % 1021,2 hPa 0,0 l/m 0 min 0 min 0 W/m 12,6 km/h (3 Bft)
24.10.2014 04:26 11,6 C 10,6 C 87 % 1021,2 hPa 0,0 l/m 0 min 0 min 0 W/m 12,6 km/h (3 Bft)
24.10.2014 04:28 11,6 C 10,6 C 87 % 1021,1 hPa 0,0 l/m 0 min 0 min 0 W/m 12,6 km/h (3 Bft)
24.10.2014 04:30 11,6 C 10,6 C 87 % 1021,0 hPa 0,0 l/m 0 min 0 min 0 W/m 14,6 km/h (3 Bft)
24.10.2014 04:32 11,6 C 10,6 C 87 % 1021,1 hPa 0,0 l/m 0 min 0 min 0 W/m 14,6 km/h (3 Bft)
24.10.2014 04:34 11,7 C 10,6 C 87 % 1021,1 hPa 0,0 l/m 0 min 0 min 0 W/m 16,7 km/h (3 Bft)
24.10.2014 04:36 11,6 C 10,6 C 87 % 1021,1 hPa 0,0 l/m 0 min 0 min 0 W/m 14,6 km/h (3 Bft)
24.10.2014 04:38 11,6 C 10,6 C 87 % 1021,0 hPa 0,0 l/m 0 min 0 min 0 W/m 8,4 km/h (2 Bft)
24.10.2014 04:40 11,7 C 10,6 C 87 % 1020,9 hPa 0,0 l/m 0 min 0 min 0 W/m 8,4 km/h (2 Bft)
24.10.2014 04:42 11,6 C 10,6 C 87 % 1021,0 hPa 0,0 l/m 0 min 0 min 0 W/m 14,6 km/h (3 Bft)
24.10.2014 04:44 11,7 C 10,6 C 87 % 1021,0 hPa 0,0 l/m 0 min 0 min 0 W/m 12,6 km/h (3 Bft)
24.10.2014 04:46 11,6 C 10,6 C 87 % 1021,0 hPa 0,0 l/m 0 min 0 min 0 W/m 16,7 km/h (3 Bft)
24.10.2014 04:48 11,6 C 10,6 C 87 % 1021,0 hPa 0,0 l/m 0 min 0 min 0 W/m 12,6 km/h (3 Bft)
24.10.2014 04:50 11,6 C 10,6 C 87 % 1021,0 hPa 0,0 l/m 0 min 0 min 0 W/m 20,9 km/h (4 Bft)
24.10.2014 04:52 11,7 C 10,6 C 87 % 1020,9 hPa 0,0 l/m 0 min 0 min 0 W/m 14,6 km/h (3 Bft)
24.10.2014 04:54 11,6 C 10,6 C 87 % 1021,0 hPa 0,0 l/m 0 min 0 min 0 W/m 8,4 km/h (2 Bft)
24.10.2014 04:56 11,6 C 10,6 C 87 % 1021,0 hPa 0,0 l/m 0 min 0 min 0 W/m 10,5 km/h (2 Bft)
24.10.2014 04:58 11,6 C 10,6 C 87 % 1021,0 hPa 0,0 l/m 0 min 0 min 0 W/m 12,6 km/h (3 Bft)
24.10.2014 05:00 11,6 C 10,6 C 87 % 1021,0 hPa 0,0 l/m 0 min 0 min 0 W/m 14,6 km/h (3 Bft)
24.10.2014 05:02 11,6 C 10,6 C 87 % 1020,9 hPa 0,0 l/m 0 min 0 min 0 W/m 10,5 km/h (2 Bft)
24.10.2014 05:04 11,6 C 10,6 C 87 % 1021,0 hPa 0,0 l/m 0 min 0 min 0 W/m 8,4 km/h (2 Bft)
24.10.2014 05:06 11,6 C 10,0 C 87 % 1021,0 hPa 0,0 l/m 0 min 0 min 0 W/m 10,5 km/h (2 Bft)
24.10.2014 05:08 11,6 C 10,0 C 87 % 1020,9 hPa 0,0 l/m 0 min 0 min 0 W/m 12,6 km/h (3 Bft)
24.10.2014 05:10 11,6 C 10,0 C 87 % 1021,0 hPa 0,0 l/m 0 min 0 min 0 W/m 8,4 km/h (2 Bft)
24.10.2014 05:12 11,6 C 10,0 C 87 % 1021,0 hPa 0,0 l/m 0 min 0 min 0 W/m 14,6 km/h (3 Bft)
24.10.2014 05:14 11,6 C 10,0 C 87 % 1021,0 hPa 0,0 l/m 0 min 0 min 0 W/m 8,4 km/h (2 Bft)
24.10.2014 05:16 11,6 C 10,0 C 87 % 1021,0 hPa 0,0 l/m 0 min 0 min 0 W/m 10,5 km/h (2 Bft)
24.10.2014 05:18 11,6 C 10,0 C 87 % 1021,0 hPa 0,0 l/m 0 min 0 min 0 W/m 10,5 km/h (2 Bft)
24.10.2014 05:20 11,6 C 10,0 C 87 % 1021,0 hPa 0,0 l/m 0 min 0 min 0 W/m 12,6 km/h (3 Bft)
24.10.2014 05:22 11,6 C 10,0 C 87 % 1021,0 hPa 0,0 l/m 0 min 0 min 0 W/m 14,6 km/h (3 Bft)
24.10.2014 05:24 11,6 C 10,0 C 87 % 1020,9 hPa 0,0 l/m 0 min 0 min 0 W/m 14,6 km/h (3 Bft)
24.10.2014 05:26 11,5 C 10,0 C 88 % 1021,0 hPa 0,0 l/m 0 min 0 min 0 W/m 10,5 km/h (2 Bft)
24.10.2014 05:28 11,5 C 10,0 C 88 % 1021,1 hPa 0,0 l/m 0 min 0 min 0 W/m 10,5 km/h (2 Bft)
24.10.2014 05:30 11,5 C 10,0 C 88 % 1021,0 hPa 0,0 l/m 0 min 0 min 0 W/m 12,6 km/h (3 Bft)
24.10.2014 05:32 11,5 C 10,0 C 88 % 1021,0 hPa 0,0 l/m 0 min 0 min 0 W/m 10,5 km/h (2 Bft)
24.10.2014 05:34 11,5 C 10,0 C 88 % 1021,0 hPa 0,0 l/m 0 min 0 min 0 W/m 8,4 km/h (2 Bft)
24.10.2014 05:36 11,4 C 10,0 C 88 % 1020,9 hPa 0,0 l/m 0 min 0 min 0 W/m 12,6 km/h (3 Bft)
24.10.2014 05:38 11,4 C 10,0 C 88 % 1020,9 hPa 0,0 l/m 0 min 0 min 0 W/m 8,4 km/h (2 Bft)
24.10.2014 05:40 11,4 C 10,0 C 88 % 1020,9 hPa 0,0 l/m 0 min 0 min 0 W/m 14,6 km/h (3 Bft)
24.10.2014 05:42 11,4 C 10,0 C 88 % 1020,9 hPa 0,0 l/m 0 min 0 min 0 W/m 10,5 km/h (2 Bft)
24.10.2014 05:44 11,4 C 10,0 C 88 % 1020,9 hPa 0,0 l/m 0 min 0 min 0 W/m 14,6 km/h (3 Bft)
24.10.2014 05:46 11,4 C 10,0 C 88 % 1021,0 hPa 0,0 l/m 0 min 0 min 0 W/m 12,6 km/h (3 Bft)
24.10.2014 05:48 11,4 C 10,0 C 88 % 1020,9 hPa 0,0 l/m 0 min 0 min 0 W/m 14,6 km/h (3 Bft)
24.10.2014 05:50 11,3 C 10,0 C 88 % 1021,0 hPa 0,0 l/m 0 min 0 min 0 W/m 10,5 km/h (2 Bft)
24.10.2014 05:52 11,3 C 10,0 C 88 % 1020,9 hPa 0,0 l/m 0 min 0 min 0 W/m 14,6 km/h (3 Bft)
24.10.2014 05:54 11,3 C 10,0 C 88 % 1021,0 hPa 0,0 l/m 0 min 0 min 0 W/m 14,6 km/h (3 Bft)
24.10.2014 05:56 11,3 C 10,0 C 88 % 1020,9 hPa 0,0 l/m 0 min 0 min 0 W/m 14,6 km/h (3 Bft)
24.10.2014 05:58 11,3 C 10,0 C 88 % 1021,0 hPa 0,0 l/m 0 min 0 min 0 W/m 12,6 km/h (3 Bft)
24.10.2014 06:00 11,3 C 10,0 C 88 % 1021,0 hPa 0,0 l/m 0 min 0 min 0 W/m 16,7 km/h (3 Bft)
24.10.2014 06:02 11,3 C 10,0 C 88 % 1020,9 hPa 0,0 l/m 0 min 0 min 0 W/m 10,5 km/h (2 Bft)
24.10.2014 06:05 11,3 C 10,0 C 88 % 1020,9 hPa 0,0 l/m 0 min 0 min 0 W/m 18,8 km/h (3 Bft)
24.10.2014 06:06 11,3 C 10,0 C 88 % 1020,9 hPa 0,0 l/m 0 min 0 min 0 W/m 12,6 km/h (3 Bft)
24.10.2014 06:08 11,3 C 10,0 C 89 % 1020,9 hPa 0,0 l/m 0 min 0 min 0 W/m 18,8 km/h (3 Bft)
24.10.2014 06:10 11,3 C 10,0 C 88 % 1020,9 hPa 0,0 l/m 0 min 0 min 0 W/m 14,6 km/h (3 Bft)
24.10.2014 06:12 11,3 C 10,0 C 88 % 1021,0 hPa 0,0 l/m 0 min 0 min 0 W/m 16,7 km/h (3 Bft)
24.10.2014 06:14 11,3 C 10,0 C 88 % 1021,0 hPa 0,0 l/m 0 min 0 min 0 W/m 16,7 km/h (3 Bft)
24.10.2014 06:16 11,3 C 10,6 C 88 % 1021,0 hPa 0,0 l/m 0 min 0 min 0 W/m 14,6 km/h (3 Bft)
24.10.2014 06:18 11,3 C 10,6 C 88 % 1021,0 hPa 0,0 l/m 0 min 0 min 0 W/m 8,4 km/h (2 Bft)
24.10.2014 06:20 11,3 C 10,6 C 88 % 1021,0 hPa 0,0 l/m 0 min 0 min 0 W/m 14,6 km/h (3 Bft)
24.10.2014 06:22 11,3 C 10,6 C 88 % 1021,0 hPa 0,0 l/m 0 min 0 min 0 W/m 12,6 km/h (3 Bft)
24.10.2014 06:24 11,3 C 10,0 C 88 % 1021,0 hPa 0,0 l/m 0 min 0 min 0 W/m 14,6 km/h (3 Bft)
24.10.2014 06:26 11,3 C 10,0 C 88 % 1021,0 hPa 0,0 l/m 0 min 0 min 0 W/m 20,9 km/h (4 Bft)
24.10.2014 06:28 11,3 C 10,0 C 88 % 1020,9 hPa 0,0 l/m 0 min 0 min 0 W/m 8,4 km/h (2 Bft)
24.10.2014 06:30 11,3 C 10,0 C 88 % 1020,9 hPa 0,0 l/m 0 min 0 min 0 W/m 14,6 km/h (3 Bft)
24.10.2014 06:32 11,3 C 10,0 C 88 % 1020,8 hPa 0,0 l/m 0 min 0 min 0 W/m 14,6 km/h (3 Bft)
24.10.2014 06:34 11,3 C 10,0 C 88 % 1020,8 hPa 0,0 l/m 0 min 0 min 0 W/m 12,6 km/h (3 Bft)
24.10.2014 06:36 11,4 C 10,0 C 88 % 1020,7 hPa 0,0 l/m 0 min 0 min 0 W/m 10,5 km/h (2 Bft)
24.10.2014 06:38 11,4 C 10,0 C 88 % 1020,7 hPa 0,0 l/m 0 min 0 min 0 W/m 16,7 km/h (3 Bft)
24.10.2014 06:40 11,4 C 10,6 C 88 % 1020,8 hPa 0,0 l/m 0 min 0 min 0 W/m 14,6 km/h (3 Bft)
24.10.2014 06:42 11,4 C 10,0 C 88 % 1020,8 hPa 0,0 l/m 0 min 0 min 0 W/m 16,7 km/h (3 Bft)
24.10.2014 06:44 11,4 C 10,0 C 88 % 1020,7 hPa 0,0 l/m 0 min 0 min 0 W/m 14,6 km/h (3 Bft)
24.10.2014 06:46 11,4 C 10,0 C 88 % 1020,8 hPa 0,0 l/m 0 min 0 min 0 W/m 12,6 km/h (3 Bft)
24.10.2014 06:48 11,4 C 10,0 C 87 % 1020,8 hPa 0,0 l/m 0 min 0 min 0 W/m 12,6 km/h (3 Bft)
24.10.2014 06:50 11,4 C 10,0 C 88 % 1020,7 hPa 0,0 l/m 0 min 0 min 0 W/m 14,6 km/h (3 Bft)
24.10.2014 06:52 11,4 C 10,0 C 88 % 1020,7 hPa 0,0 l/m 0 min 0 min 0 W/m 12,6 km/h (3 Bft)
24.10.2014 06:54 11,4 C 10,0 C 88 % 1020,7 hPa 0,0 l/m 0 min 0 min 0 W/m 12,6 km/h (3 Bft)
24.10.2014 06:56 11,4 C 10,0 C 88 % 1020,6 hPa 0,0 l/m 0 min 0 min 0 W/m 16,7 km/h (3 Bft)
24.10.2014 06:58 11,4 C 10,0 C 88 % 1020,7 hPa 0,0 l/m 0 min 0 min 0 W/m 18,8 km/h (3 Bft)
24.10.2014 07:00 11,4 C 10,0 C 88 % 1020,7 hPa 0,0 l/m 0 min 0 min 0 W/m 12,6 km/h (3 Bft)
24.10.2014 07:02 11,4 C 10,0 C 88 % 1020,8 hPa 0,0 l/m 0 min 0 min 0 W/m 12,6 km/h (3 Bft)
24.10.2014 07:04 11,4 C 10,0 C 88 % 1020,7 hPa 0,0 l/m 0 min 0 min 0 W/m 16,7 km/h (3 Bft)
24.10.2014 07:06 11,4 C 10,0 C 88 % 1020,6 hPa 0,0 l/m 0 min 0 min 0 W/m 10,5 km/h (2 Bft)
24.10.2014 07:08 11,4 C 10,0 C 88 % 1020,6 hPa 0,0 l/m 0 min 0 min 0 W/m 23,0 km/h (4 Bft)
24.10.2014 07:10 11,4 C 10,0 C 88 % 1020,6 hPa 0,0 l/m 0 min 0 min 0 W/m 14,6 km/h (3 Bft)
24.10.2014 07:12 11,4 C 10,0 C 88 % 1020,6 hPa 0,0 l/m 0 min 0 min 0 W/m 14,6 km/h (3 Bft)
24.10.2014 07:14 11,4 C 10,0 C 88 % 1020,6 hPa 0,0 l/m 0 min 0 min 0 W/m 12,6 km/h (3 Bft)
24.10.2014 07:16 11,4 C 10,0 C 87 % 1020,6 hPa 0,0 l/m 0 min 0 min 0 W/m 16,7 km/h (3 Bft)
24.10.2014 07:18 11,4 C 10,0 C 88 % 1020,6 hPa 0,0 l/m 0 min 0 min 0 W/m 14,6 km/h (3 Bft)
24.10.2014 07:20 11,4 C 10,0 C 88 % 1020,6 hPa 0,0 l/m 0 min 0 min 0 W/m 12,6 km/h (3 Bft)
24.10.2014 07:22 11,4 C 10,0 C 88 % 1020,6 hPa 0,0 l/m 0 min 0 min 0 W/m 20,9 km/h (4 Bft)
24.10.2014 07:24 11,4 C 10,0 C 88 % 1020,6 hPa 0,0 l/m 0 min 0 min 0 W/m 14,6 km/h (3 Bft)
24.10.2014 07:26 11,4 C 10,0 C 88 % 1020,6 hPa 0,0 l/m 0 min 0 min 0 W/m 12,6 km/h (3 Bft)
24.10.2014 07:28 11,4 C 10,0 C 88 % 1020,6 hPa 0,0 l/m 0 min 0 min 0 W/m 12,6 km/h (3 Bft)
24.10.2014 07:30 11,4 C 10,0 C 88 % 1020,6 hPa 0,0 l/m 0 min 0 min 0 W/m 14,6 km/h (3 Bft)
24.10.2014 07:32 11,3 C 10,0 C 88 % 1020,6 hPa 0,0 l/m 0 min 0 min 0 W/m 20,9 km/h (4 Bft)
24.10.2014 07:34 11,3 C 10,0 C 88 % 1020,6 hPa 0,0 l/m 0 min 0 min 0 W/m 20,9 km/h (4 Bft)
24.10.2014 07:36 11,3 C 10,0 C 88 % 1020,6 hPa 0,0 l/m 0 min 0 min 0 W/m 14,6 km/h (3 Bft)
24.10.2014 07:38 11,3 C 10,0 C 88 % 1020,6 hPa 0,0 l/m 0 min 0 min 0 W/m 14,6 km/h (3 Bft)
24.10.2014 07:40 11,3 C 10,0 C 88 % 1020,6 hPa 0,0 l/m 0 min 0 min 0 W/m 18,8 km/h (3 Bft)
24.10.2014 07:42 11,3 C 10,0 C 88 % 1020,6 hPa 0,0 l/m 0 min 0 min 0 W/m 14,6 km/h (3 Bft)
24.10.2014 07:44 11,3 C 10,0 C 88 % 1020,6 hPa 0,0 l/m 0 min 0 min 0 W/m 18,8 km/h (3 Bft)
24.10.2014 07:46 11,3 C 10,0 C 88 % 1020,6 hPa 0,0 l/m 0 min 0 min 0 W/m 18,8 km/h (3 Bft)
24.10.2014 07:48 11,3 C 10,0 C 88 % 1020,6 hPa 0,0 l/m 0 min 0 min 0 W/m 20,9 km/h (4 Bft)
24.10.2014 07:50 11,3 C 10,0 C 88 % 1020,6 hPa 0,0 l/m 0 min 0 min 0 W/m 25,1 km/h (4 Bft)
24.10.2014 07:52 11,3 C 10,0 C 88 % 1020,6 hPa 0,0 l/m 0 min 0 min 0 W/m 12,6 km/h (3 Bft)
24.10.2014 07:54 11,3 C 10,0 C 88 % 1020,7 hPa 0,0 l/m 0 min 0 min 0 W/m 12,6 km/h (3 Bft)
24.10.2014 07:56 11,3 C 10,0 C 88 % 1020,6 hPa 0,0 l/m 0 min 0 min 0 W/m 18,8 km/h (3 Bft)
24.10.2014 07:58 11,3 C 10,0 C 88 % 1020,6 hPa 0,0 l/m 0 min 0 min 0 W/m 12,6 km/h (3 Bft)
24.10.2014 08:00 11,3 C 10,0 C 88 % 1020,6 hPa 0,0 l/m 0 min 0 min 0 W/m 14,6 km/h (3 Bft)
24.10.2014 08:02 11,3 C 10,0 C 88 % 1020,6 hPa 0,0 l/m 0 min 0 min 0 W/m 12,6 km/h (3 Bft)
24.10.2014 08:04 11,2 C 10,0 C 88 % 1020,6 hPa 0,0 l/m 0 min 0 min 0 W/m 14,6 km/h (3 Bft)
24.10.2014 08:06 11,2 C 10,0 C 88 % 1020,6 hPa 0,0 l/m 0 min 0 min 0 W/m 12,6 km/h (3 Bft)
24.10.2014 08:08 11,2 C 9,4 C 88 % 1020,6 hPa 0,0 l/m 0 min 0 min 0 W/m 12,6 km/h (3 Bft)
24.10.2014 08:10 11,2 C 9,4 C 88 % 1020,6 hPa 0,0 l/m 0 min 0 min 1 W/m 14,6 km/h (3 Bft)
24.10.2014 08:12 11,2 C 9,4 C 88 % 1020,6 hPa 0,0 l/m 0 min 0 min 5 W/m 14,6 km/h (3 Bft)
24.10.2014 08:14 11,2 C 9,4 C 88 % 1020,7 hPa 0,0 l/m 0 min 0 min 5 W/m 8,4 km/h (2 Bft)
24.10.2014 08:16 11,2 C 9,4 C 88 % 1020,6 hPa 0,0 l/m 0 min 0 min 5 W/m 8,4 km/h (2 Bft)
24.10.2014 08:18 11,1 C 9,4 C 88 % 1020,6 hPa 0,0 l/m 0 min 0 min 7 W/m 10,5 km/h (2 Bft)
24.10.2014 08:20 11,1 C 9,4 C 88 % 1020,7 hPa 0,0 l/m 0 min 0 min 7 W/m 10,5 km/h (2 Bft)
24.10.2014 08:22 11,1 C 9,4 C 88 % 1020,7 hPa 0,0 l/m 0 min 0 min 9 W/m 10,5 km/h (2 Bft)
24.10.2014 08:24 11,1 C 9,4 C 88 % 1020,6 hPa 0,0 l/m 0 min 0 min 9 W/m 12,6 km/h (3 Bft)
24.10.2014 08:26 11,0 C 9,4 C 88 % 1020,7 hPa 0,0 l/m 0 min 0 min 10 W/m 12,6 km/h (3 Bft)
24.10.2014 08:28 11,0 C 9,4 C 88 % 1020,6 hPa 0,0 l/m 0 min 0 min 12 W/m 12,6 km/h (3 Bft)
24.10.2014 08:30 10,9 C 8,9 C 88 % 1020,7 hPa 0,0 l/m 0 min 0 min 12 W/m 12,6 km/h (3 Bft)
24.10.2014 08:32 10,9 C 8,9 C 88 % 1020,6 hPa 0,0 l/m 0 min 0 min 14 W/m 14,6 km/h (3 Bft)
24.10.2014 08:34 10,9 C 8,9 C 89 % 1020,6 hPa 0,0 l/m 0 min 0 min 14 W/m 14,6 km/h (3 Bft)
24.10.2014 08:36 10,8 C 8,9 C 89 % 1020,7 hPa 0,0 l/m 0 min 0 min 16 W/m 12,6 km/h (3 Bft)
24.10.2014 08:38 10,8 C 8,9 C 89 % 1020,6 hPa 0,0 l/m 0 min 0 min 18 W/m 12,6 km/h (3 Bft)
24.10.2014 08:40 10,8 C 8,9 C 89 % 1020,7 hPa 0,0 l/m 0 min 0 min 18 W/m 12,6 km/h (3 Bft)
24.10.2014 08:42 10,7 C 8,9 C 89 % 1020,7 hPa 0,0 l/m 0 min 0 min 20 W/m 12,6 km/h (3 Bft)
24.10.2014 08:44 10,7 C 8,9 C 89 % 1020,7 hPa 0,0 l/m 0 min 0 min 21 W/m 16,7 km/h (3 Bft)
24.10.2014 08:46 10,7 C 8,9 C 89 % 1020,8 hPa 0,0 l/m 0 min 0 min 24 W/m 6,3 km/h (2 Bft)
24.10.2014 08:48 10,7 C 8,9 C 89 % 1020,8 hPa 0,0 l/m 0 min 0 min 25 W/m 8,4 km/h (2 Bft)
24.10.2014 08:50 10,7 C 8,9 C 89 % 1020,7 hPa 0,0 l/m 0 min 0 min 26 W/m 10,5 km/h (2 Bft)
24.10.2014 08:52 10,6 C 8,9 C 89 % 1020,8 hPa 0,0 l/m 0 min 0 min 28 W/m 10,5 km/h (2 Bft)
24.10.2014 08:54 10,6 C 8,9 C 90 % 1020,8 hPa 0,0 l/m 0 min 0 min 28 W/m 12,6 km/h (3 Bft)
24.10.2014 08:56 10,6 C 8,9 C 90 % 1020,8 hPa 0,0 l/m 0 min 0 min 28 W/m 8,4 km/h (2 Bft)
24.10.2014 08:58 10,6 C 8,9 C 90 % 1020,7 hPa 0,0 l/m 0 min 0 min 29 W/m 10,5 km/h (2 Bft)
24.10.2014 09:00 10,6 C 8,9 C 90 % 1020,7 hPa 0,0 l/m 0 min 0 min 31 W/m 14,6 km/h (3 Bft)
24.10.2014 09:02 10,5 C 8,9 C 90 % 1020,7 hPa 0,0 l/m 0 min 0 min 34 W/m 12,6 km/h (3 Bft)
24.10.2014 09:04 10,5 C 9,4 C 90 % 1020,7 hPa 0,0 l/m 0 min 0 min 38 W/m 16,7 km/h (3 Bft)
24.10.2014 09:06 10,5 C 9,4 C 90 % 1020,7 hPa 0,0 l/m 0 min 0 min 41 W/m 10,5 km/h (2 Bft)
24.10.2014 09:08 10,5 C 9,4 C 90 % 1020,8 hPa 0,0 l/m 0 min 0 min 46 W/m 10,5 km/h (2 Bft)
24.10.2014 09:10 10,5 C 9,4 C 90 % 1020,7 hPa 0,0 l/m 0 min 0 min 52 W/m 12,6 km/h (3 Bft)
24.10.2014 09:12 10,5 C 9,4 C 90 % 1020,7 hPa 0,0 l/m 0 min 0 min 60 W/m 14,6 km/h (3 Bft)
24.10.2014 09:14 10,4 C 9,4 C 91 % 1020,7 hPa 0,0 l/m 0 min 0 min 72 W/m 12,6 km/h (3 Bft)
24.10.2014 09:16 10,5 C 9,4 C 91 % 1020,7 hPa 0,0 l/m 2 min 0 min 85 W/m 12,6 km/h (3 Bft)
24.10.2014 09:18 10,5 C 10,0 C 91 % 1020,7 hPa 0,0 l/m 2 min 0 min 97 W/m 12,6 km/h (3 Bft)
24.10.2014 09:20 10,5 C 10,0 C 91 % 1020,7 hPa 0,0 l/m 2 min 0 min 110 W/m 10,5 km/h (2 Bft)
24.10.2014 09:22 10,5 C 10,0 C 91 % 1020,7 hPa 0,0 l/m 2 min 0 min 122 W/m 12,6 km/h (3 Bft)
24.10.2014 09:24 10,6 C 10,0 C 91 % 1020,7 hPa 0,0 l/m 2 min 0 min 156 W/m 18,8 km/h (3 Bft)
24.10.2014 09:26 10,6 C 10,6 C 91 % 1020,8 hPa 0,0 l/m 2 min 0 min 181 W/m 12,6 km/h (3 Bft)
24.10.2014 09:28 10,6 C 10,6 C 91 % 1020,8 hPa 0,0 l/m 2 min 0 min 168 W/m 12,6 km/h (3 Bft)
24.10.2014 09:30 10,7 C 10,6 C 91 % 1020,8 hPa 0,0 l/m 2 min 0 min 203 W/m 16,7 km/h (3 Bft)
24.10.2014 09:32 10,7 C 10,6 C 91 % 1020,7 hPa 0,0 l/m 2 min 0 min 224 W/m 16,7 km/h (3 Bft)
24.10.2014 09:34 10,8 C 10,6 C 91 % 1020,7 hPa 0,0 l/m 2 min 0 min 217 W/m 16,7 km/h (3 Bft)
24.10.2014 09:36 10,9 C 10,6 C 92 % 1020,8 hPa 0,0 l/m 2 min 0 min 233 W/m 14,6 km/h (3 Bft)
24.10.2014 09:38 10,9 C 10,6 C 92 % 1020,8 hPa 0,0 l/m 2 min 0 min 233 W/m 12,6 km/h (3 Bft)
24.10.2014 09:40 11,0 C 11,1 C 92 % 1020,8 hPa 0,0 l/m 2 min 0 min 233 W/m 18,8 km/h (3 Bft)
24.10.2014 09:42 11,1 C 11,1 C 92 % 1020,8 hPa 0,0 l/m 2 min 0 min 184 W/m 12,6 km/h (3 Bft)
24.10.2014 09:44 11,1 C 11,1 C 92 % 1020,8 hPa 0,0 l/m 2 min 0 min 133 W/m 14,6 km/h (3 Bft)
24.10.2014 09:46 11,2 C 11,1 C 91 % 1020,7 hPa 0,0 l/m 2 min 0 min 127 W/m 14,6 km/h (3 Bft)
24.10.2014 09:48 11,2 C 11,1 C 91 % 1020,7 hPa 0,0 l/m 2 min 0 min 121 W/m 18,8 km/h (3 Bft)
24.10.2014 09:50 11,3 C 11,1 C 91 % 1020,7 hPa 0,0 l/m 0 min 0 min 116 W/m 16,7 km/h (3 Bft)
24.10.2014 09:52 11,3 C 11,1 C 91 % 1020,7 hPa 0,0 l/m 0 min 0 min 110 W/m 20,9 km/h (4 Bft)
24.10.2014 09:54 11,4 C 11,1 C 91 % 1020,7 hPa 0,0 l/m 0 min 0 min 106 W/m 20,9 km/h (4 Bft)
24.10.2014 09:56 11,4 C 11,1 C 90 % 1020,7 hPa 0,0 l/m 0 min 0 min 103 W/m 20,9 km/h (4 Bft)
24.10.2014 09:58 11,4 C 11,1 C 90 % 1020,7 hPa 0,0 l/m 0 min 0 min 101 W/m 12,6 km/h (3 Bft)
24.10.2014 10:00 11,5 C 11,1 C 90 % 1020,7 hPa 0,0 l/m 0 min 0 min 99 W/m 12,6 km/h (3 Bft)
24.10.2014 10:02 11,5 C 11,1 C 90 % 1020,8 hPa 0,0 l/m 0 min 0 min 98 W/m 14,6 km/h (3 Bft)
24.10.2014 10:04 11,6 C 11,1 C 89 % 1020,7 hPa 0,0 l/m 0 min 0 min 97 W/m 12,6 km/h (3 Bft)
24.10.2014 10:06 11,6 C 11,1 C 89 % 1020,7 hPa 0,0 l/m 0 min 0 min 97 W/m 16,7 km/h (3 Bft)
24.10.2014 10:08 11,6 C 11,1 C 89 % 1020,8 hPa 0,0 l/m 0 min 0 min 97 W/m 16,7 km/h (3 Bft)
24.10.2014 10:10 11,7 C 11,1 C 89 % 1020,8 hPa 0,0 l/m 0 min 0 min 97 W/m 12,6 km/h (3 Bft)
24.10.2014 10:12 11,7 C 11,1 C 89 % 1020,7 hPa 0,0 l/m 0 min 0 min 98 W/m 16,7 km/h (3 Bft)
24.10.2014 10:14 11,7 C 11,1 C 89 % 1020,8 hPa 0,0 l/m 0 min 0 min 98 W/m 16,7 km/h (3 Bft)
24.10.2014 10:16 11,7 C 11,1 C 89 % 1020,8 hPa 0,0 l/m 0 min 0 min 98 W/m 16,7 km/h (3 Bft)
24.10.2014 10:18 11,8 C 11,1 C 88 % 1020,8 hPa 0,0 l/m 0 min 0 min 98 W/m 20,9 km/h (4 Bft)
24.10.2014 10:20 11,8 C 11,1 C 88 % 1020,7 hPa 0,0 l/m 0 min 0 min 102 W/m 16,7 km/h (3 Bft)
24.10.2014 10:22 11,8 C 11,1 C 88 % 1020,8 hPa 0,0 l/m 0 min 0 min 104 W/m 18,8 km/h (3 Bft)
24.10.2014 10:24 11,8 C 11,1 C 88 % 1020,7 hPa 0,0 l/m 0 min 0 min 102 W/m 20,9 km/h (4 Bft)
24.10.2014 10:26 11,9 C 11,1 C 87 % 1020,7 hPa 0,0 l/m 0 min 0 min 100 W/m 14,6 km/h (3 Bft)
24.10.2014 10:28 11,9 C 11,1 C 87 % 1020,8 hPa 0,0 l/m 0 min 0 min 98 W/m 20,9 km/h (4 Bft)
24.10.2014 10:30 11,9 C 11,1 C 87 % 1020,8 hPa 0,0 l/m 0 min 0 min 98 W/m 14,6 km/h (3 Bft)
24.10.2014 10:32 11,9 C 11,1 C 87 % 1020,8 hPa 0,0 l/m 0 min 0 min 98 W/m 18,8 km/h (3 Bft)
24.10.2014 10:34 11,9 C 11,1 C 87 % 1020,8 hPa 0,0 l/m 0 min 0 min 98 W/m 18,8 km/h (3 Bft)
24.10.2014 10:36 11,9 C 11,1 C 87 % 1020,8 hPa 0,0 l/m 0 min 0 min 100 W/m 14,6 km/h (3 Bft)
24.10.2014 10:38 12,0 C 11,1 C 87 % 1020,8 hPa 0,0 l/m 0 min 0 min 103 W/m 10,5 km/h (2 Bft)
24.10.2014 10:40 12,0 C 11,1 C 87 % 1020,8 hPa 0,0 l/m 0 min 0 min 104 W/m 23,0 km/h (4 Bft)
24.10.2014 10:42 12,0 C 11,1 C 87 % 1020,8 hPa 0,0 l/m 0 min 0 min 105 W/m 14,6 km/h (3 Bft)
24.10.2014 10:44 12,0 C 11,1 C 86 % 1020,8 hPa 0,0 l/m 0 min 0 min 109 W/m 16,7 km/h (3 Bft)
24.10.2014 10:46 12,1 C 11,1 C 86 % 1020,8 hPa 0,0 l/m 0 min 0 min 111 W/m 16,7 km/h (3 Bft)
24.10.2014 10:48 12,1 C 11,1 C 86 % 1020,7 hPa 0,0 l/m 0 min 0 min 113 W/m 12,6 km/h (3 Bft)
24.10.2014 10:50 12,1 C 11,7 C 86 % 1020,7 hPa 0,0 l/m 0 min 0 min 113 W/m 16,7 km/h (3 Bft)
24.10.2014 10:52 12,1 C 11,1 C 86 % 1020,7 hPa 0,0 l/m 0 min 0 min 111 W/m 14,6 km/h (3 Bft)
24.10.2014 10:54 12,1 C 11,1 C 86 % 1020,7 hPa 0,0 l/m 0 min 0 min 111 W/m 14,6 km/h (3 Bft)
24.10.2014 10:56 12,1 C 11,7 C 86 % 1020,8 hPa 0,0 l/m 0 min 0 min 111 W/m 16,7 km/h (3 Bft)
24.10.2014 10:58 12,2 C 11,7 C 86 % 1020,7 hPa 0,0 l/m 0 min 0 min 113 W/m 10,5 km/h (2 Bft)
24.10.2014 11:00 12,2 C 11,7 C 86 % 1020,8 hPa 0,0 l/m 0 min 0 min 114 W/m 12,6 km/h (3 Bft)
24.10.2014 11:02 12,2 C 11,7 C 86 % 1020,8 hPa 0,0 l/m 0 min 0 min 117 W/m 8,4 km/h (2 Bft)
24.10.2014 11:04 12,2 C 11,7 C 86 % 1020,8 hPa 0,0 l/m 0 min 0 min 121 W/m 20,9 km/h (4 Bft)
24.10.2014 11:06 12,2 C 11,7 C 86 % 1020,8 hPa 0,0 l/m 0 min 0 min 125 W/m 14,6 km/h (3 Bft)
24.10.2014 11:08 12,2 C 11,7 C 86 % 1020,7 hPa 0,0 l/m 0 min 0 min 130 W/m 10,5 km/h (2 Bft)
24.10.2014 11:10 12,2 C 11,7 C 86 % 1020,7 hPa 0,0 l/m 0 min 0 min 135 W/m 16,7 km/h (3 Bft)
24.10.2014 11:12 12,3 C 11,7 C 85 % 1020,8 hPa 0,0 l/m 0 min 0 min 139 W/m 20,9 km/h (4 Bft)
24.10.2014 11:14 12,3 C 11,7 C 85 % 1020,7 hPa 0,0 l/m 0 min 0 min 142 W/m 18,8 km/h (3 Bft)
24.10.2014 11:16 12,3 C 11,7 C 85 % 1020,7 hPa 0,0 l/m 0 min 0 min 145 W/m 16,7 km/h (3 Bft)
24.10.2014 11:18 12,3 C 11,7 C 85 % 1020,7 hPa 0,0 l/m 0 min 0 min 148 W/m 14,6 km/h (3 Bft)
24.10.2014 11:20 12,3 C 11,7 C 85 % 1020,7 hPa 0,0 l/m 0 min 0 min 150 W/m 10,5 km/h (2 Bft)
24.10.2014 11:22 12,4 C 11,7 C 85 % 1020,7 hPa 0,0 l/m 0 min 0 min 151 W/m 12,6 km/h (3 Bft)
24.10.2014 11:24 12,4 C 11,7 C 85 % 1020,7 hPa 0,0 l/m 0 min 0 min 152 W/m 12,6 km/h (3 Bft)
24.10.2014 11:26 12,4 C 11,7 C 85 % 1020,7 hPa 0,0 l/m 0 min 0 min 154 W/m 12,6 km/h (3 Bft)
24.10.2014 11:28 12,4 C 12,2 C 85 % 1020,7 hPa 0,0 l/m 0 min 0 min 155 W/m 12,6 km/h (3 Bft)
24.10.2014 11:30 12,5 C 12,2 C 85 % 1020,7 hPa 0,0 l/m 0 min 0 min 154 W/m 10,5 km/h (2 Bft)
24.10.2014 11:32 12,5 C 12,2 C 85 % 1020,7 hPa 0,0 l/m 0 min 0 min 152 W/m 10,5 km/h (2 Bft)
24.10.2014 11:34 12,6 C 12,2 C 85 % 1020,7 hPa 0,0 l/m 0 min 0 min 147 W/m 18,8 km/h (3 Bft)
24.10.2014 11:36 12,6 C 12,2 C 85 % 1020,7 hPa 0,0 l/m 0 min 0 min 142 W/m 27,2 km/h (4 Bft)
24.10.2014 11:38 12,6 C 12,2 C 85 % 1020,7 hPa 0,0 l/m 0 min 0 min 135 W/m 14,6 km/h (3 Bft)
24.10.2014 11:40 12,6 C 12,2 C 84 % 1020,7 hPa 0,0 l/m 0 min 0 min 130 W/m 12,6 km/h (3 Bft)
24.10.2014 11:42 12,6 C 12,2 C 84 % 1020,7 hPa 0,0 l/m 0 min 0 min 127 W/m 12,6 km/h (3 Bft)
24.10.2014 11:44 12,7 C 12,2 C 84 % 1020,6 hPa 0,0 l/m 0 min 0 min 127 W/m 10,5 km/h (2 Bft)
24.10.2014 11:46 12,7 C 11,7 C 84 % 1020,6 hPa 0,0 l/m 0 min 0 min 128 W/m 10,5 km/h (2 Bft)
24.10.2014 11:48 12,7 C 11,7 C 84 % 1020,6 hPa 0,0 l/m 0 min 0 min 134 W/m 18,8 km/h (3 Bft)
24.10.2014 11:50 12,7 C 11,7 C 84 % 1020,6 hPa 0,0 l/m 0 min 0 min 139 W/m 14,6 km/h (3 Bft)
24.10.2014 11:52 12,7 C 12,2 C 83 % 1020,6 hPa 0,0 l/m 0 min 0 min 155 W/m 14,6 km/h (3 Bft)
24.10.2014 11:54 12,7 C 12,2 C 83 % 1020,6 hPa 0,0 l/m 0 min 0 min 170 W/m 16,7 km/h (3 Bft)
24.10.2014 11:56 12,8 C 12,2 C 83 % 1020,6 hPa 0,0 l/m 0 min 0 min 173 W/m 12,6 km/h (3 Bft)
24.10.2014 11:58 12,8 C 12,2 C 83 % 1020,6 hPa 0,0 l/m 0 min 0 min 184 W/m 16,7 km/h (3 Bft)
24.10.2014 12:00 12,8 C 12,2 C 83 % 1020,6 hPa 0,0 l/m 0 min 0 min 197 W/m 12,6 km/h (3 Bft)
24.10.2014 12:02 12,9 C 12,2 C 83 % 1020,6 hPa 0,0 l/m 0 min 0 min 204 W/m 14,6 km/h (3 Bft)
24.10.2014 12:05 12,9 C 12,2 C 83 % 1020,6 hPa 0,0 l/m 0 min 0 min 209 W/m 23,0 km/h (4 Bft)
24.10.2014 12:06 12,9 C 12,2 C 83 % 1020,6 hPa 0,0 l/m 0 min 0 min 217 W/m 14,6 km/h (3 Bft)
24.10.2014 12:08 12,9 C 12,2 C 82 % 1020,6 hPa 0,0 l/m 0 min 0 min 231 W/m 14,6 km/h (3 Bft)
24.10.2014 12:10 12,9 C 12,8 C 82 % 1020,6 hPa 0,0 l/m 2 min 0 min 244 W/m 10,5 km/h (2 Bft)
24.10.2014 12:12 13,0 C 12,8 C 82 % 1020,6 hPa 0,0 l/m 2 min 0 min 240 W/m 14,6 km/h (3 Bft)
24.10.2014 12:14 13,1 C 12,8 C 82 % 1020,5 hPa 0,0 l/m 0 min 0 min 230 W/m 16,7 km/h (3 Bft)
24.10.2014 12:16 13,1 C 12,8 C 82 % 1020,5 hPa 0,0 l/m 0 min 0 min 226 W/m 14,6 km/h (3 Bft)
24.10.2014 12:18 13,2 C 12,8 C 81 % 1020,5 hPa 0,0 l/m 0 min 0 min 223 W/m 20,9 km/h (4 Bft)
24.10.2014 12:20 13,2 C 12,8 C 81 % 1020,5 hPa 0,0 l/m 0 min 0 min 222 W/m 16,7 km/h (3 Bft)
24.10.2014 12:22 13,2 C 12,8 C 81 % 1020,5 hPa 0,0 l/m 0 min 0 min 216 W/m 12,6 km/h (3 Bft)
24.10.2014 12:24 13,3 C 12,8 C 81 % 1020,5 hPa 0,0 l/m 0 min 0 min 211 W/m 10,5 km/h (2 Bft)
24.10.2014 12:26 13,3 C 12,8 C 81 % 1020,5 hPa 0,0 l/m 0 min 0 min 213 W/m 16,7 km/h (3 Bft)
24.10.2014 12:28 13,3 C 12,8 C 80 % 1020,4 hPa 0,0 l/m 0 min 0 min 207 W/m 20,9 km/h (4 Bft)
24.10.2014 12:30 13,4 C 12,8 C 80 % 1020,4 hPa 0,0 l/m 0 min 0 min 199 W/m 16,7 km/h (3 Bft)
24.10.2014 12:32 13,4 C 12,8 C 80 % 1020,4 hPa 0,0 l/m 0 min 0 min 194 W/m 18,8 km/h (3 Bft)
24.10.2014 12:34 13,4 C 12,8 C 79 % 1020,4 hPa 0,0 l/m 0 min 0 min 191 W/m 29,3 km/h (5 Bft)
24.10.2014 12:36 13,4 C 12,8 C 79 % 1020,4 hPa 0,0 l/m 0 min 0 min 192 W/m 16,7 km/h (3 Bft)
24.10.2014 12:38 13,4 C 12,8 C 79 % 1020,4 hPa 0,0 l/m 0 min 0 min 193 W/m 16,7 km/h (3 Bft)
24.10.2014 12:40 13,4 C 12,8 C 79 % 1020,4 hPa 0,0 l/m 0 min 0 min 196 W/m 23,0 km/h (4 Bft)
24.10.2014 12:42 13,4 C 12,8 C 79 % 1020,3 hPa 0,0 l/m 0 min 0 min 199 W/m 14,6 km/h (3 Bft)
24.10.2014 12:44 13,4 C 12,8 C 79 % 1020,3 hPa 0,0 l/m 0 min 0 min 207 W/m 16,7 km/h (3 Bft)
24.10.2014 12:46 13,4 C 12,8 C 78 % 1020,3 hPa 0,0 l/m 0 min 0 min 213 W/m 16,7 km/h (3 Bft)
24.10.2014 12:48 13,4 C 12,8 C 79 % 1020,3 hPa 0,0 l/m 0 min 0 min 216 W/m 14,6 km/h (3 Bft)
24.10.2014 12:50 13,5 C 12,8 C 79 % 1020,3 hPa 0,0 l/m 0 min 0 min 215 W/m 8,4 km/h (2 Bft)
24.10.2014 12:52 13,5 C 12,8 C 79 % 1020,2 hPa 0,0 l/m 0 min 0 min 212 W/m 18,8 km/h (3 Bft)
24.10.2014 12:54 13,5 C 12,8 C 79 % 1020,2 hPa 0,0 l/m 0 min 0 min 208 W/m 20,9 km/h (4 Bft)
24.10.2014 12:56 13,5 C 12,8 C 79 % 1020,2 hPa 0,0 l/m 0 min 0 min 199 W/m 23,0 km/h (4 Bft)
24.10.2014 12:58 13,5 C 12,8 C 78 % 1020,2 hPa 0,0 l/m 0 min 0 min 189 W/m 20,9 km/h (4 Bft)
24.10.2014 13:00 13,5 C 12,2 C 78 % 1020,1 hPa 0,0 l/m 0 min 0 min 177 W/m 18,8 km/h (3 Bft)
24.10.2014 13:02 13,5 C 12,2 C 78 % 1020,2 hPa 0,0 l/m 0 min 0 min 166 W/m 29,3 km/h (5 Bft)
24.10.2014 13:04 13,5 C 12,2 C 78 % 1020,0 hPa 0,0 l/m 0 min 0 min 158 W/m 16,7 km/h (3 Bft)
24.10.2014 13:06 13,5 C 12,2 C 78 % 1020,0 hPa 0,0 l/m 0 min 0 min 154 W/m 23,0 km/h (4 Bft)
24.10.2014 13:08 13,5 C 12,2 C 78 % 1019,9 hPa 0,0 l/m 0 min 0 min 153 W/m 31,4 km/h (5 Bft)
24.10.2014 13:10 13,4 C 12,2 C 78 % 1020,0 hPa 0,0 l/m 0 min 0 min 155 W/m 18,8 km/h (3 Bft)
24.10.2014 13:12 13,4 C 12,2 C 78 % 1019,9 hPa 0,0 l/m 0 min 0 min 160 W/m 14,6 km/h (3 Bft)
24.10.2014 13:14 13,4 C 12,2 C 79 % 1019,9 hPa 0,0 l/m 0 min 0 min 170 W/m 27,2 km/h (4 Bft)
24.10.2014 13:16 13,4 C 12,2 C 78 % 1019,9 hPa 0,0 l/m 0 min 0 min 186 W/m 23,0 km/h (4 Bft)
24.10.2014 13:18 13,4 C 12,8 C 78 % 1019,8 hPa 0,0 l/m 0 min 0 min 204 W/m 27,2 km/h (4 Bft)
24.10.2014 13:20 13,4 C 12,8 C 78 % 1019,8 hPa 0,0 l/m 0 min 0 min 219 W/m 18,8 km/h (3 Bft)
24.10.2014 13:22 13,4 C 12,8 C 79 % 1019,8 hPa 0,0 l/m 0 min 0 min 223 W/m 23,0 km/h (4 Bft)
24.10.2014 13:24 13,4 C 12,8 C 78 % 1019,8 hPa 0,0 l/m 0 min 0 min 221 W/m 27,2 km/h (4 Bft)
24.10.2014 13:26 13,5 C 12,8 C 78 % 1019,8 hPa 0,0 l/m 0 min 0 min 220 W/m 25,1 km/h (4 Bft)
24.10.2014 13:28 13,5 C 12,8 C 78 % 1019,8 hPa 0,0 l/m 0 min 0 min 217 W/m 16,7 km/h (3 Bft)
24.10.2014 13:30 13,5 C 12,8 C 78 % 1019,7 hPa 0,0 l/m 0 min 0 min 216 W/m 18,8 km/h (3 Bft)
24.10.2014 13:32 13,5 C 12,8 C 78 % 1019,7 hPa 0,0 l/m 0 min 0 min 218 W/m 23,0 km/h (4 Bft)
24.10.2014 13:34 13,6 C 12,8 C 78 % 1019,6 hPa 0,0 l/m 0 min 0 min 227 W/m 25,1 km/h (4 Bft)
24.10.2014 13:36 13,6 C 12,8 C 78 % 1019,6 hPa 0,0 l/m 0 min 0 min 222 W/m 23,0 km/h (4 Bft)
24.10.2014 13:38 13,6 C 12,8 C 77 % 1019,6 hPa 0,0 l/m 0 min 0 min 211 W/m 20,9 km/h (4 Bft)
24.10.2014 13:40 13,6 C 12,8 C 78 % 1019,6 hPa 0,0 l/m 0 min 0 min 204 W/m 12,6 km/h (3 Bft)
24.10.2014 13:42 13,6 C 13,3 C 78 % 1019,6 hPa 0,0 l/m 0 min 0 min 198 W/m 12,6 km/h (3 Bft)
24.10.2014 13:44 13,6 C 13,3 C 78 % 1019,6 hPa 0,0 l/m 0 min 0 min 194 W/m 16,7 km/h (3 Bft)
24.10.2014 13:46 13,7 C 13,3 C 78 % 1019,5 hPa 0,0 l/m 0 min 0 min 191 W/m 8,4 km/h (2 Bft)
24.10.2014 13:48 13,7 C 13,3 C 78 % 1019,6 hPa 0,0 l/m 0 min 0 min 189 W/m 12,6 km/h (3 Bft)
24.10.2014 13:50 13,7 C 13,3 C 78 % 1019,6 hPa 0,0 l/m 0 min 0 min 183 W/m 23,0 km/h (4 Bft)
24.10.2014 13:52 13,8 C 13,3 C 78 % 1019,5 hPa 0,0 l/m 0 min 0 min 178 W/m 18,8 km/h (3 Bft)
24.10.2014 13:54 13,8 C 13,3 C 78 % 1019,5 hPa 0,0 l/m 0 min 0 min 174 W/m 14,6 km/h (3 Bft)
24.10.2014 13:56 13,8 C 13,3 C 78 % 1019,5 hPa 0,0 l/m 0 min 0 min 176 W/m 16,7 km/h (3 Bft)
24.10.2014 13:58 13,8 C 13,3 C 78 % 1019,5 hPa 0,0 l/m 0 min 0 min 178 W/m 18,8 km/h (3 Bft)
24.10.2014 14:00 13,8 C 13,3 C 78 % 1019,6 hPa 0,0 l/m 0 min 0 min 181 W/m 20,9 km/h (4 Bft)
24.10.2014 14:02 13,8 C 13,3 C 78 % 1019,5 hPa 0,0 l/m 0 min 0 min 178 W/m 12,6 km/h (3 Bft)
24.10.2014 14:04 13,9 C 13,3 C 78 % 1019,5 hPa 0,0 l/m 0 min 0 min 180 W/m 25,1 km/h (4 Bft)
24.10.2014 14:06 13,9 C 13,3 C 78 % 1019,5 hPa 0,0 l/m 0 min 0 min 204 W/m 14,6 km/h (3 Bft)
24.10.2014 14:08 13,9 C 13,3 C 78 % 1019,5 hPa 0,0 l/m 0 min 0 min 190 W/m 10,5 km/h (2 Bft)
24.10.2014 14:10 13,9 C 13,9 C 79 % 1019,4 hPa 0,0 l/m 0 min 0 min 192 W/m 14,6 km/h (3 Bft)
24.10.2014 14:12 14,0 C 13,9 C 79 % 1019,4 hPa 0,0 l/m 0 min 0 min 192 W/m 20,9 km/h (4 Bft)
24.10.2014 14:14 14,0 C 13,9 C 79 % 1019,4 hPa 0,0 l/m 0 min 0 min 187 W/m 18,8 km/h (3 Bft)
24.10.2014 14:16 14,0 C 13,3 C 78 % 1019,4 hPa 0,0 l/m 0 min 0 min 182 W/m 18,8 km/h (3 Bft)
24.10.2014 14:18 14,0 C 13,3 C 77 % 1019,3 hPa 0,0 l/m 0 min 0 min 180 W/m 23,0 km/h (4 Bft)
24.10.2014 14:20 14,0 C 13,3 C 77 % 1019,3 hPa 0,0 l/m 0 min 0 min 181 W/m 16,7 km/h (3 Bft)
24.10.2014 14:22 14,1 C 13,3 C 77 % 1019,3 hPa 0,0 l/m 0 min 0 min 185 W/m 23,0 km/h (4 Bft)
24.10.2014 14:24 14,1 C 13,3 C 77 % 1019,3 hPa 0,0 l/m 0 min 0 min 183 W/m 14,6 km/h (3 Bft)
24.10.2014 14:26 14,1 C 13,3 C 78 % 1019,3 hPa 0,0 l/m 0 min 0 min 179 W/m 18,8 km/h (3 Bft)
24.10.2014 14:28 14,1 C 13,3 C 78 % 1019,3 hPa 0,0 l/m 0 min 0 min 172 W/m 18,8 km/h (3 Bft)
24.10.2014 14:30 14,1 C 13,3 C 79 % 1019,3 hPa 0,0 l/m 0 min 0 min 165 W/m 14,6 km/h (3 Bft)
24.10.2014 14:32 14,0 C 13,3 C 79 % 1019,3 hPa 0,0 l/m 0 min 0 min 164 W/m 18,8 km/h (3 Bft)
24.10.2014 14:34 14,0 C 13,3 C 79 % 1019,2 hPa 0,0 l/m 0 min 0 min 163 W/m 18,8 km/h (3 Bft)
24.10.2014 14:36 14,0 C 13,3 C 79 % 1019,2 hPa 0,0 l/m 0 min 0 min 157 W/m 16,7 km/h (3 Bft)
24.10.2014 14:38 13,9 C 12,8 C 79 % 1019,2 hPa 0,0 l/m 0 min 0 min 150 W/m 20,9 km/h (4 Bft)
24.10.2014 14:40 13,9 C 12,8 C 79 % 1019,2 hPa 0,0 l/m 0 min 0 min 145 W/m 18,8 km/h (3 Bft)
24.10.2014 14:42 13,9 C 12,8 C 79 % 1019,1 hPa 0,0 l/m 0 min 0 min 136 W/m 16,7 km/h (3 Bft)
24.10.2014 14:44 13,9 C 12,8 C 79 % 1019,1 hPa 0,0 l/m 0 min 0 min 129 W/m 18,8 km/h (3 Bft)
24.10.2014 14:46 13,9 C 12,8 C 79 % 1019,1 hPa 0,0 l/m 0 min 0 min 122 W/m 23,0 km/h (4 Bft)
24.10.2014 14:48 13,8 C 12,8 C 79 % 1019,1 hPa 0,0 l/m 0 min 0 min 119 W/m 23,0 km/h (4 Bft)
24.10.2014 14:50 13,8 C 12,8 C 80 % 1019,1 hPa 0,0 l/m 0 min 0 min 119 W/m 16,7 km/h (3 Bft)
24.10.2014 14:52 13,8 C 12,8 C 80 % 1019,0 hPa 0,0 l/m 0 min 0 min 124 W/m 20,9 km/h (4 Bft)
24.10.2014 14:54 13,7 C 12,8 C 80 % 1018,9 hPa 0,0 l/m 0 min 0 min 132 W/m 16,7 km/h (3 Bft)
24.10.2014 14:56 13,7 C 12,8 C 80 % 1018,9 hPa 0,0 l/m 0 min 0 min 138 W/m 14,6 km/h (3 Bft)
24.10.2014 14:58 13,7 C 12,8 C 80 % 1018,9 hPa 0,0 l/m 0 min 0 min 151 W/m 14,6 km/h (3 Bft)
24.10.2014 15:00 13,7 C 13,3 C 80 % 1018,9 hPa 0,0 l/m 0 min 0 min 158 W/m 12,6 km/h (3 Bft)
24.10.2014 15:02 13,7 C 13,3 C 80 % 1018,8 hPa 0,0 l/m 0 min 0 min 159 W/m 18,8 km/h (3 Bft)
24.10.2014 15:04 13,7 C 13,3 C 80 % 1018,9 hPa 0,0 l/m 0 min 0 min 151 W/m 20,9 km/h (4 Bft)
24.10.2014 15:06 13,7 C 13,3 C 80 % 1018,8 hPa 0,0 l/m 0 min 0 min 140 W/m 14,6 km/h (3 Bft)
24.10.2014 15:08 13,7 C 12,8 C 80 % 1018,8 hPa 0,0 l/m 0 min 0 min 133 W/m 20,9 km/h (4 Bft)
24.10.2014 15:10 13,7 C 12,8 C 80 % 1018,8 hPa 0,0 l/m 0 min 0 min 128 W/m 25,1 km/h (4 Bft)
24.10.2014 15:12 13,7 C 12,8 C 80 % 1018,8 hPa 0,0 l/m 0 min 0 min 130 W/m 20,9 km/h (4 Bft)
24.10.2014 15:14 13,7 C 12,8 C 80 % 1018,8 hPa 0,0 l/m 0 min 0 min 135 W/m 14,6 km/h (3 Bft)
24.10.2014 15:16 13,7 C 12,8 C 80 % 1018,8 hPa 0,0 l/m 0 min 0 min 140 W/m 18,8 km/h (3 Bft)
24.10.2014 15:18 13,7 C 12,8 C 80 % 1018,7 hPa 0,0 l/m 0 min 0 min 141 W/m 23,0 km/h (4 Bft)
24.10.2014 15:20 13,7 C 12,8 C 80 % 1018,7 hPa 0,0 l/m 0 min 0 min 138 W/m 18,8 km/h (3 Bft)
24.10.2014 15:22 13,7 C 12,8 C 80 % 1018,7 hPa 0,0 l/m 0 min 0 min 129 W/m 16,7 km/h (3 Bft)
24.10.2014 15:24 13,7 C 12,8 C 80 % 1018,7 hPa 0,0 l/m 0 min 0 min 118 W/m 16,7 km/h (3 Bft)
24.10.2014 15:26 13,7 C 12,8 C 80 % 1018,7 hPa 0,0 l/m 0 min 0 min 105 W/m 20,9 km/h (4 Bft)
24.10.2014 15:28 13,7 C 12,8 C 80 % 1018,7 hPa 0,0 l/m 0 min 0 min 97 W/m 18,8 km/h (3 Bft)
24.10.2014 15:30 13,7 C 12,8 C 80 % 1018,7 hPa 0,0 l/m 0 min 0 min 93 W/m 18,8 km/h (3 Bft)
24.10.2014 15:32 13,7 C 12,8 C 80 % 1018,7 hPa 0,0 l/m 0 min 0 min 91 W/m 18,8 km/h (3 Bft)
24.10.2014 15:34 13,7 C 12,8 C 80 % 1018,6 hPa 0,0 l/m 0 min 0 min 91 W/m 20,9 km/h (4 Bft)
24.10.2014 15:36 13,7 C 12,8 C 80 % 1018,6 hPa 0,0 l/m 0 min 0 min 91 W/m 18,8 km/h (3 Bft)
24.10.2014 15:38 13,6 C 12,8 C 80 % 1018,6 hPa 0,0 l/m 0 min 0 min 88 W/m 12,6 km/h (3 Bft)
24.10.2014 15:40 13,6 C 12,8 C 80 % 1018,6 hPa 0,0 l/m 0 min 0 min 80 W/m 12,6 km/h (3 Bft)
24.10.2014 15:42 13,6 C 12,8 C 80 % 1018,6 hPa 0,0 l/m 0 min 0 min 72 W/m 16,7 km/h (3 Bft)
24.10.2014 15:44 13,6 C 12,2 C 80 % 1018,6 hPa 0,0 l/m 0 min 0 min 64 W/m 16,7 km/h (3 Bft)
24.10.2014 15:46 13,6 C 12,2 C 80 % 1018,6 hPa 0,0 l/m 0 min 0 min 59 W/m 16,7 km/h (3 Bft)
24.10.2014 15:48 13,6 C 12,2 C 80 % 1018,6 hPa 0,0 l/m 0 min 0 min 58 W/m 18,8 km/h (3 Bft)
24.10.2014 15:50 13,6 C 12,2 C 80 % 1018,6 hPa 0,0 l/m 0 min 0 min 61 W/m 16,7 km/h (3 Bft)
24.10.2014 15:52 13,5 C 12,2 C 80 % 1018,5 hPa 0,0 l/m 0 min 0 min 65 W/m 16,7 km/h (3 Bft)
24.10.2014 15:54 13,5 C 12,2 C 80 % 1018,5 hPa 0,0 l/m 0 min 0 min 70 W/m 18,8 km/h (3 Bft)
24.10.2014 15:56 13,6 C 12,2 C 80 % 1018,5 hPa 0,0 l/m 0 min 0 min 78 W/m 16,7 km/h (3 Bft)
24.10.2014 15:58 13,5 C 12,8 C 81 % 1018,5 hPa 0,0 l/m 0 min 0 min 86 W/m 18,8 km/h (3 Bft)
24.10.2014 16:00 13,5 C 12,8 C 80 % 1018,4 hPa 0,0 l/m 0 min 0 min 94 W/m 14,6 km/h (3 Bft)
24.10.2014 16:02 13,5 C 12,8 C 81 % 1018,4 hPa 0,0 l/m 0 min 0 min 108 W/m 16,7 km/h (3 Bft)
24.10.2014 16:04 13,5 C 12,8 C 81 % 1018,4 hPa 0,0 l/m 0 min 0 min 126 W/m 16,7 km/h (3 Bft)
24.10.2014 16:06 13,5 C 12,8 C 81 % 1018,4 hPa 0,0 l/m 0 min 0 min 143 W/m 10,5 km/h (2 Bft)
24.10.2014 16:08 13,5 C 12,8 C 81 % 1018,3 hPa 0,0 l/m 0 min 0 min 155 W/m 18,8 km/h (3 Bft)
24.10.2014 16:10 13,5 C 13,3 C 81 % 1018,3 hPa 0,0 l/m 0 min 0 min 155 W/m 18,8 km/h (3 Bft)
24.10.2014 16:12 13,6 C 13,3 C 81 % 1018,4 hPa 0,0 l/m 0 min 0 min 147 W/m 18,8 km/h (3 Bft)
24.10.2014 16:14 13,6 C 13,3 C 81 % 1018,3 hPa 0,0 l/m 0 min 0 min 139 W/m 20,9 km/h (4 Bft)
24.10.2014 16:16 13,6 C 12,8 C 81 % 1018,4 hPa 0,0 l/m 0 min 0 min 124 W/m 25,1 km/h (4 Bft)
24.10.2014 16:18 13,6 C 12,8 C 80 % 1018,3 hPa 0,0 l/m 0 min 0 min 107 W/m 25,1 km/h (4 Bft)
24.10.2014 16:20 13,6 C 12,8 C 80 % 1018,3 hPa 0,0 l/m 0 min 0 min 93 W/m 16,7 km/h (3 Bft)
24.10.2014 16:22 13,6 C 12,8 C 80 % 1018,3 hPa 0,0 l/m 0 min 0 min 79 W/m 10,5 km/h (2 Bft)
24.10.2014 16:24 13,6 C 12,8 C 81 % 1018,3 hPa 0,0 l/m 0 min 0 min 66 W/m 14,6 km/h (3 Bft)
24.10.2014 16:26 13,6 C 12,8 C 80 % 1018,3 hPa 0,0 l/m 0 min 0 min 56 W/m 16,7 km/h (3 Bft)
24.10.2014 16:28 13,6 C 12,8 C 81 % 1018,3 hPa 0,0 l/m 0 min 0 min 49 W/m 18,8 km/h (3 Bft)
24.10.2014 16:30 13,6 C 12,2 C 81 % 1018,3 hPa 0,0 l/m 0 min 0 min 47 W/m 23,0 km/h (4 Bft)
24.10.2014 16:32 13,6 C 12,2 C 80 % 1018,2 hPa 0,0 l/m 0 min 0 min 47 W/m 16,7 km/h (3 Bft)
24.10.2014 16:34 13,6 C 12,2 C 81 % 1018,3 hPa 0,0 l/m 0 min 0 min 51 W/m 12,6 km/h (3 Bft)
24.10.2014 16:36 13,6 C 12,2 C 81 % 1018,2 hPa 0,0 l/m 0 min 0 min 55 W/m 18,8 km/h (3 Bft)
24.10.2014 16:38 13,6 C 12,2 C 80 % 1018,3 hPa 0,0 l/m 0 min 0 min 55 W/m 16,7 km/h (3 Bft)
24.10.2014 16:40 13,6 C 12,2 C 80 % 1018,3 hPa 0,0 l/m 0 min 0 min 53 W/m 16,7 km/h (3 Bft)
24.10.2014 16:42 13,6 C 12,2 C 80 % 1018,3 hPa 0,0 l/m 0 min 0 min 48 W/m 23,0 km/h (4 Bft)
24.10.2014 16:44 13,6 C 12,2 C 80 % 1018,2 hPa 0,0 l/m 0 min 0 min 44 W/m 10,5 km/h (2 Bft)
24.10.2014 16:46 13,6 C 12,2 C 80 % 1018,2 hPa 0,0 l/m 0 min 0 min 43 W/m 10,5 km/h (2 Bft)
24.10.2014 16:48 13,5 C 12,2 C 80 % 1018,2 hPa 0,0 l/m 0 min 0 min 44 W/m 14,6 km/h (3 Bft)
24.10.2014 16:50 13,5 C 12,2 C 81 % 1018,2 hPa 0,0 l/m 0 min 0 min 42 W/m 14,6 km/h (3 Bft)
24.10.2014 16:52 13,5 C 12,2 C 81 % 1018,2 hPa 0,0 l/m 0 min 0 min 39 W/m 14,6 km/h (3 Bft)
24.10.2014 16:54 13,5 C 12,2 C 81 % 1018,2 hPa 0,0 l/m 0 min 0 min 37 W/m 12,6 km/h (3 Bft)
24.10.2014 16:56 13,5 C 12,2 C 81 % 1018,2 hPa 0,0 l/m 0 min 0 min 35 W/m 14,6 km/h (3 Bft)
24.10.2014 16:58 13,5 C 12,2 C 81 % 1018,2 hPa 0,0 l/m 0 min 0 min 34 W/m 12,6 km/h (3 Bft)
24.10.2014 17:00 13,5 C 12,2 C 81 % 1018,2 hPa 0,0 l/m 0 min 0 min 33 W/m 16,7 km/h (3 Bft)
24.10.2014 17:02 13,5 C 12,2 C 81 % 1018,2 hPa 0,0 l/m 0 min 0 min 33 W/m 14,6 km/h (3 Bft)
24.10.2014 17:04 13,4 C 12,2 C 81 % 1018,2 hPa 0,0 l/m 0 min 0 min 35 W/m 12,6 km/h (3 Bft)
24.10.2014 17:06 13,4 C 12,2 C 81 % 1018,0 hPa 0,0 l/m 0 min 0 min 38 W/m 12,6 km/h (3 Bft)
24.10.2014 17:08 13,4 C 12,2 C 81 % 1018,1 hPa 0,0 l/m 0 min 0 min 42 W/m 10,5 km/h (2 Bft)
24.10.2014 17:10 13,4 C 12,2 C 81 % 1018,1 hPa 0,0 l/m 0 min 0 min 47 W/m 10,5 km/h (2 Bft)
24.10.2014 17:12 13,4 C 12,2 C 81 % 1018,0 hPa 0,0 l/m 0 min 0 min 49 W/m 14,6 km/h (3 Bft)
24.10.2014 17:14 13,4 C 12,2 C 81 % 1018,0 hPa 0,0 l/m 0 min 0 min 51 W/m 18,8 km/h (3 Bft)
24.10.2014 17:16 13,4 C 12,2 C 81 % 1017,9 hPa 0,0 l/m 0 min 0 min 56 W/m 14,6 km/h (3 Bft)
24.10.2014 17:18 13,4 C 12,2 C 81 % 1018,0 hPa 0,0 l/m 0 min 0 min 58 W/m 14,6 km/h (3 Bft)
24.10.2014 17:20 13,4 C 12,2 C 81 % 1017,9 hPa 0,0 l/m 0 min 0 min 58 W/m 14,6 km/h (3 Bft)
24.10.2014 17:22 13,4 C 12,2 C 81 % 1017,9 hPa 0,0 l/m 0 min 0 min 54 W/m 12,6 km/h (3 Bft)
24.10.2014 17:24 13,4 C 12,2 C 81 % 1017,9 hPa 0,0 l/m 0 min 0 min 53 W/m 10,5 km/h (2 Bft)
24.10.2014 17:26 13,4 C 12,2 C 82 % 1017,9 hPa 0,0 l/m 0 min 0 min 51 W/m 14,6 km/h (3 Bft)
24.10.2014 17:28 13,4 C 12,2 C 82 % 1017,9 hPa 0,0 l/m 0 min 0 min 46 W/m 12,6 km/h (3 Bft)
24.10.2014 17:30 13,4 C 12,2 C 82 % 1017,9 hPa 0,0 l/m 0 min 0 min 40 W/m 12,6 km/h (3 Bft)
24.10.2014 17:32 13,4 C 12,2 C 82 % 1017,9 hPa 0,0 l/m 0 min 0 min 34 W/m 12,6 km/h (3 Bft)
24.10.2014 17:34 13,4 C 12,2 C 82 % 1017,9 hPa 0,0 l/m 0 min 0 min 28 W/m 12,6 km/h (3 Bft)
24.10.2014 17:36 13,4 C 12,2 C 82 % 1017,9 hPa 0,0 l/m 0 min 0 min 26 W/m 10,5 km/h (2 Bft)
24.10.2014 17:38 13,4 C 12,2 C 82 % 1017,9 hPa 0,0 l/m 0 min 0 min 25 W/m 12,6 km/h (3 Bft)
24.10.2014 17:40 13,4 C 12,2 C 82 % 1017,9 hPa 0,0 l/m 0 min 0 min 25 W/m 10,5 km/h (2 Bft)
24.10.2014 17:42 13,4 C 12,2 C 82 % 1017,9 hPa 0,0 l/m 0 min 0 min 23 W/m 18,8 km/h (3 Bft)
24.10.2014 17:44 13,4 C 12,2 C 82 % 1017,9 hPa 0,0 l/m 0 min 0 min 21 W/m 12,6 km/h (3 Bft)
24.10.2014 17:46 13,4 C 12,2 C 82 % 1017,9 hPa 0,0 l/m 0 min 0 min 21 W/m 20,9 km/h (4 Bft)
24.10.2014 17:48 13,4 C 12,2 C 82 % 1017,7 hPa 0,0 l/m 0 min 0 min 20 W/m 18,8 km/h (3 Bft)
24.10.2014 17:50 13,4 C 11,7 C 82 % 1017,8 hPa 0,0 l/m 0 min 0 min 18 W/m 16,7 km/h (3 Bft)
24.10.2014 17:52 13,3 C 11,7 C 82 % 1017,8 hPa 0,0 l/m 0 min 0 min 13 W/m 16,7 km/h (3 Bft)
24.10.2014 17:54 13,3 C 11,7 C 82 % 1017,7 hPa 0,0 l/m 0 min 0 min 12 W/m 18,8 km/h (3 Bft)
24.10.2014 17:56 13,3 C 11,7 C 82 % 1017,7 hPa 0,0 l/m 0 min 0 min 12 W/m 16,7 km/h (3 Bft)
24.10.2014 17:58 13,3 C 11,7 C 82 % 1017,7 hPa 0,0 l/m 0 min 0 min 11 W/m 14,6 km/h (3 Bft)
24.10.2014 18:00 13,3 C 11,7 C 82 % 1017,6 hPa 0,0 l/m 0 min 0 min 11 W/m 14,6 km/h (3 Bft)
24.10.2014 18:02 13,3 C 11,7 C 82 % 1017,7 hPa 0,0 l/m 0 min 0 min 10 W/m 14,6 km/h (3 Bft)
24.10.2014 18:05 13,3 C 11,7 C 82 % 1017,6 hPa 0,0 l/m 0 min 0 min 8 W/m 8,4 km/h (2 Bft)
24.10.2014 18:06 13,3 C 11,7 C 82 % 1017,6 hPa 0,0 l/m 0 min 0 min 7 W/m 12,6 km/h (3 Bft)
24.10.2014 18:08 13,3 C 11,7 C 83 % 1017,6 hPa 0,0 l/m 0 min 0 min 6 W/m 12,6 km/h (3 Bft)
24.10.2014 18:10 13,3 C 11,7 C 83 % 1017,6 hPa 0,0 l/m 0 min 0 min 5 W/m 6,3 km/h (2 Bft)
24.10.2014 18:12 13,3 C 11,1 C 83 % 1017,6 hPa 0,0 l/m 0 min 0 min 4 W/m 6,3 km/h (2 Bft)
24.10.2014 18:14 13,3 C 11,1 C 83 % 1017,6 hPa 0,0 l/m 0 min 0 min 0 W/m 10,5 km/h (2 Bft)
24.10.2014 18:16 13,3 C 11,1 C 83 % 1017,5 hPa 0,0 l/m 0 min 0 min 0 W/m 10,5 km/h (2 Bft)
24.10.2014 18:18 13,2 C 11,1 C 83 % 1017,5 hPa 0,0 l/m 0 min 0 min 0 W/m 10,5 km/h (2 Bft)
24.10.2014 18:20 13,2 C 11,7 C 83 % 1017,5 hPa 0,0 l/m 0 min 0 min 0 W/m 12,6 km/h (3 Bft)
24.10.2014 18:22 13,2 C 11,7 C 83 % 1017,5 hPa 0,0 l/m 0 min 0 min 0 W/m 12,6 km/h (3 Bft)
24.10.2014 18:24 13,2 C 11,7 C 83 % 1017,4 hPa 0,0 l/m 0 min 0 min 0 W/m 8,4 km/h (2 Bft)
24.10.2014 18:26 13,2 C 11,7 C 83 % 1017,5 hPa 0,0 l/m 0 min 0 min 0 W/m 14,6 km/h (3 Bft)
24.10.2014 18:28 13,1 C 11,7 C 83 % 1017,5 hPa 0,0 l/m 0 min 0 min 0 W/m 14,6 km/h (3 Bft)
24.10.2014 18:30 13,1 C 11,7 C 83 % 1017,5 hPa 0,0 l/m 0 min 0 min 0 W/m 8,4 km/h (2 Bft)
24.10.2014 18:32 13,1 C 11,7 C 83 % 1017,5 hPa 0,0 l/m 0 min 0 min 0 W/m 12,6 km/h (3 Bft)
24.10.2014 18:34 13,1 C 11,7 C 83 % 1017,4 hPa 0,0 l/m 0 min 0 min 0 W/m 10,5 km/h (2 Bft)
24.10.2014 18:36 13,1 C 11,7 C 83 % 1017,5 hPa 0,0 l/m 0 min 0 min 0 W/m 12,6 km/h (3 Bft)
24.10.2014 18:38 13,1 C 11,7 C 83 % 1017,5 hPa 0,0 l/m 0 min 0 min 0 W/m 12,6 km/h (3 Bft)
24.10.2014 18:40 13,0 C 11,7 C 84 % 1017,5 hPa 0,0 l/m 0 min 0 min 0 W/m 14,6 km/h (3 Bft)
24.10.2014 18:42 13,0 C 11,7 C 84 % 1017,4 hPa 0,0 l/m 0 min 0 min 0 W/m 14,6 km/h (3 Bft)
24.10.2014 18:44 12,9 C 11,7 C 84 % 1017,4 hPa 0,0 l/m 0 min 0 min 0 W/m 12,6 km/h (3 Bft)
24.10.2014 18:46 12,9 C 11,7 C 84 % 1017,4 hPa 0,0 l/m 0 min 0 min 0 W/m 12,6 km/h (3 Bft)
24.10.2014 18:48 12,9 C 11,7 C 84 % 1017,4 hPa 0,0 l/m 0 min 0 min 0 W/m 10,5 km/h (2 Bft)
24.10.2014 18:50 12,9 C 11,7 C 84 % 1017,4 hPa 0,0 l/m 0 min 0 min 0 W/m 8,4 km/h (2 Bft)
24.10.2014 18:52 12,9 C 11,7 C 84 % 1017,5 hPa 0,0 l/m 0 min 0 min 0 W/m 12,6 km/h (3 Bft)
24.10.2014 18:54 12,9 C 11,7 C 84 % 1017,4 hPa 0,0 l/m 0 min 0 min 0 W/m 14,6 km/h (3 Bft)
24.10.2014 18:56 12,9 C 11,7 C 84 % 1017,4 hPa 0,0 l/m 0 min 0 min 0 W/m 10,5 km/h (2 Bft)
24.10.2014 18:58 12,9 C 11,7 C 84 % 1017,4 hPa 0,0 l/m 0 min 0 min 0 W/m 12,6 km/h (3 Bft)
24.10.2014 19:00 12,9 C 11,7 C 84 % 1017,4 hPa 0,0 l/m 0 min 0 min 0 W/m 12,6 km/h (3 Bft)
24.10.2014 19:02 12,8 C 11,7 C 84 % 1017,4 hPa 0,0 l/m 0 min 0 min 0 W/m 12,6 km/h (3 Bft)
24.10.2014 19:04 12,8 C 11,1 C 84 % 1017,5 hPa 0,0 l/m 0 min 0 min 0 W/m 10,5 km/h (2 Bft)
24.10.2014 19:06 12,8 C 11,1 C 84 % 1017,5 hPa 0,0 l/m 0 min 0 min 0 W/m 10,5 km/h (2 Bft)
24.10.2014 19:08 12,8 C 11,1 C 84 % 1017,5 hPa 0,0 l/m 0 min 0 min 0 W/m 10,5 km/h (2 Bft)
24.10.2014 19:10 12,8 C 11,1 C 84 % 1017,5 hPa 0,0 l/m 0 min 0 min 0 W/m 10,5 km/h (2 Bft)
24.10.2014 19:12 12,8 C 11,1 C 84 % 1017,5 hPa 0,0 l/m 0 min 0 min 0 W/m 14,6 km/h (3 Bft)
24.10.2014 19:14 12,8 C 11,1 C 84 % 1017,5 hPa 0,0 l/m 0 min 0 min 0 W/m 8,4 km/h (2 Bft)
24.10.2014 19:16 12,8 C 11,1 C 84 % 1017,5 hPa 0,0 l/m 0 min 0 min 0 W/m 10,5 km/h (2 Bft)
24.10.2014 19:18 12,8 C 11,1 C 85 % 1017,5 hPa 0,0 l/m 0 min 0 min 0 W/m 12,6 km/h (3 Bft)
24.10.2014 19:20 12,8 C 11,1 C 85 % 1017,5 hPa 0,0 l/m 0 min 0 min 0 W/m 8,4 km/h (2 Bft)
24.10.2014 19:22 12,8 C 11,1 C 85 % 1017,5 hPa 0,0 l/m 0 min 0 min 0 W/m 14,6 km/h (3 Bft)
24.10.2014 19:24 12,8 C 11,1 C 85 % 1017,6 hPa 0,0 l/m 0 min 0 min 0 W/m 14,6 km/h (3 Bft)
24.10.2014 19:26 12,7 C 11,1 C 85 % 1017,5 hPa 0,0 l/m 0 min 0 min 0 W/m 8,4 km/h (2 Bft)
24.10.2014 19:28 12,7 C 11,1 C 85 % 1017,5 hPa 0,0 l/m 0 min 0 min 0 W/m 10,5 km/h (2 Bft)
24.10.2014 19:30 12,7 C 11,1 C 85 % 1017,5 hPa 0,0 l/m 0 min 0 min 0 W/m 10,5 km/h (2 Bft)
24.10.2014 19:32 12,7 C 11,1 C 85 % 1017,5 hPa 0,0 l/m 0 min 0 min 0 W/m 12,6 km/h (3 Bft)
24.10.2014 19:34 12,7 C 11,1 C 85 % 1017,5 hPa 0,0 l/m 0 min 0 min 0 W/m 10,5 km/h (2 Bft)
24.10.2014 19:36 12,7 C 11,1 C 85 % 1017,5 hPa 0,0 l/m 0 min 0 min 0 W/m 10,5 km/h (2 Bft)
24.10.2014 19:38 12,7 C 11,1 C 85 % 1017,6 hPa 0,0 l/m 0 min 0 min 0 W/m 12,6 km/h (3 Bft)
24.10.2014 19:40 12,7 C 11,1 C 85 % 1017,5 hPa 0,0 l/m 0 min 0 min 0 W/m 10,5 km/h (2 Bft)
24.10.2014 19:42 12,7 C 11,1 C 85 % 1017,5 hPa 0,0 l/m 0 min 0 min 0 W/m 10,5 km/h (2 Bft)
24.10.2014 19:44 12,6 C 11,1 C 85 % 1017,6 hPa 0,0 l/m 0 min 0 min 0 W/m 8,4 km/h (2 Bft)
24.10.2014 19:46 12,6 C 11,1 C 85 % 1017,6 hPa 0,0 l/m 0 min 0 min 0 W/m 8,4 km/h (2 Bft)
24.10.2014 19:48 12,6 C 11,1 C 85 % 1017,5 hPa 0,0 l/m 0 min 0 min 0 W/m 12,6 km/h (3 Bft)
24.10.2014 19:50 12,6 C 11,1 C 85 % 1017,5 hPa 0,0 l/m 0 min 0 min 0 W/m 10,5 km/h (2 Bft)
24.10.2014 19:52 12,6 C 11,1 C 85 % 1017,5 hPa 0,0 l/m 0 min 0 min 0 W/m 8,4 km/h (2 Bft)
24.10.2014 19:54 12,6 C 11,1 C 85 % 1017,5 hPa 0,0 l/m 0 min 0 min 0 W/m 14,6 km/h (3 Bft)
24.10.2014 19:56 12,5 C 11,1 C 85 % 1017,5 hPa 0,0 l/m 0 min 0 min 0 W/m 10,5 km/h (2 Bft)
24.10.2014 19:58 12,5 C 11,1 C 85 % 1017,5 hPa 0,0 l/m 0 min 0 min 0 W/m 10,5 km/h (2 Bft)
24.10.2014 20:00 12,5 C 11,1 C 85 % 1017,5 hPa 0,0 l/m 0 min 0 min 0 W/m 14,6 km/h (3 Bft)
24.10.2014 20:02 12,5 C 11,1 C 85 % 1017,5 hPa 0,0 l/m 0 min 0 min 0 W/m 10,5 km/h (2 Bft)
24.10.2014 20:04 12,5 C 11,1 C 85 % 1017,6 hPa 0,0 l/m 0 min 0 min 0 W/m 8,4 km/h (2 Bft)
24.10.2014 20:06 12,4 C 11,1 C 85 % 1017,6 hPa 0,0 l/m 0 min 0 min 0 W/m 8,4 km/h (2 Bft)
24.10.2014 20:08 12,4 C 11,1 C 85 % 1017,6 hPa 0,0 l/m 0 min 0 min 0 W/m 8,4 km/h (2 Bft)
24.10.2014 20:10 12,4 C 11,1 C 85 % 1017,5 hPa 0,0 l/m 0 min 0 min 0 W/m 8,4 km/h (2 Bft)
24.10.2014 20:12 12,4 C 11,1 C 86 % 1017,6 hPa 0,0 l/m 0 min 0 min 0 W/m 8,4 km/h (2 Bft)
24.10.2014 20:14 12,4 C 11,1 C 86 % 1017,5 hPa 0,0 l/m 0 min 0 min 0 W/m 10,5 km/h (2 Bft)
24.10.2014 20:16 12,4 C 11,1 C 86 % 1017,6 hPa 0,0 l/m 0 min 0 min 0 W/m 8,4 km/h (2 Bft)
24.10.2014 20:18 12,4 C 11,1 C 86 % 1017,5 hPa 0,0 l/m 0 min 0 min 0 W/m 12,6 km/h (3 Bft)
24.10.2014 20:20 12,4 C 11,1 C 86 % 1017,5 hPa 0,0 l/m 0 min 0 min 0 W/m 8,4 km/h (2 Bft)
24.10.2014 20:22 12,4 C 10,6 C 86 % 1017,5 hPa 0,0 l/m 0 min 0 min 0 W/m 8,4 km/h (2 Bft)
24.10.2014 20:24 12,4 C 10,6 C 86 % 1017,5 hPa 0,0 l/m 0 min 0 min 0 W/m 8,4 km/h (2 Bft)
24.10.2014 20:26 12,4 C 10,6 C 86 % 1017,5 hPa 0,0 l/m 0 min 0 min 0 W/m 10,5 km/h (2 Bft)
24.10.2014 20:28 12,3 C 10,6 C 86 % 1017,4 hPa 0,0 l/m 0 min 0 min 0 W/m 8,4 km/h (2 Bft)
24.10.2014 20:30 12,3 C 10,6 C 86 % 1017,5 hPa 0,0 l/m 0 min 0 min 0 W/m 12,6 km/h (3 Bft)
24.10.2014 20:32 12,3 C 10,6 C 86 % 1017,4 hPa 0,0 l/m 0 min 0 min 0 W/m 10,5 km/h (2 Bft)
24.10.2014 20:34 12,3 C 10,6 C 86 % 1017,5 hPa 0,0 l/m 0 min 0 min 0 W/m 8,4 km/h (2 Bft)
24.10.2014 20:36 12,3 C 10,6 C 86 % 1017,4 hPa 0,0 l/m 0 min 0 min 0 W/m 10,5 km/h (2 Bft)
24.10.2014 20:38 12,3 C 10,6 C 86 % 1017,5 hPa 0,0 l/m 0 min 0 min 0 W/m 8,4 km/h (2 Bft)
24.10.2014 20:40 12,3 C 10,6 C 86 % 1017,4 hPa 0,0 l/m 0 min 0 min 0 W/m 10,5 km/h (2 Bft)
24.10.2014 20:42 12,3 C 10,6 C 86 % 1017,4 hPa 0,0 l/m 0 min 0 min 0 W/m 8,4 km/h (2 Bft)
24.10.2014 20:44 12,3 C 10,6 C 86 % 1017,4 hPa 0,0 l/m 0 min 0 min 0 W/m 12,6 km/h (3 Bft)
24.10.2014 20:46 12,2 C 10,6 C 86 % 1017,4 hPa 0,0 l/m 0 min 0 min 0 W/m 10,5 km/h (2 Bft)
24.10.2014 20:48 12,2 C 10,6 C 86 % 1017,3 hPa 0,0 l/m 0 min 0 min 0 W/m 10,5 km/h (2 Bft)
24.10.2014 20:50 12,2 C 10,6 C 86 % 1017,3 hPa 0,0 l/m 0 min 0 min 0 W/m 8,4 km/h (2 Bft)
24.10.2014 20:52 12,2 C 10,6 C 86 % 1017,4 hPa 0,0 l/m 0 min 0 min 0 W/m 10,5 km/h (2 Bft)
24.10.2014 20:54 12,2 C 10,6 C 86 % 1017,4 hPa 0,0 l/m 0 min 0 min 0 W/m 10,5 km/h (2 Bft)
24.10.2014 20:56 12,2 C 10,6 C 86 % 1017,4 hPa 0,0 l/m 0 min 0 min 0 W/m 10,5 km/h (2 Bft)
24.10.2014 20:58 12,2 C 10,6 C 86 % 1017,5 hPa 0,0 l/m 0 min 0 min 0 W/m 10,5 km/h (2 Bft)
24.10.2014 21:00 12,2 C 10,6 C 86 % 1017,4 hPa 0,0 l/m 0 min 0 min 0 W/m 8,4 km/h (2 Bft)
24.10.2014 21:02 12,2 C 10,6 C 86 % 1017,4 hPa 0,0 l/m 0 min 0 min 0 W/m 10,5 km/h (2 Bft)
24.10.2014 21:04 12,2 C 10,6 C 86 % 1017,4 hPa 0,0 l/m 0 min 0 min 0 W/m 8,4 km/h (2 Bft)
24.10.2014 21:06 12,2 C 10,6 C 86 % 1017,4 hPa 0,0 l/m 0 min 0 min 0 W/m 8,4 km/h (2 Bft)
24.10.2014 21:08 12,2 C 10,6 C 86 % 1017,4 hPa 0,0 l/m 0 min 0 min 0 W/m 8,4 km/h (2 Bft)
24.10.2014 21:10 12,2 C 10,6 C 86 % 1017,3 hPa 0,0 l/m 0 min 0 min 0 W/m 10,5 km/h (2 Bft)
24.10.2014 21:12 12,2 C 10,0 C 86 % 1017,3 hPa 0,0 l/m 0 min 0 min 0 W/m 8,4 km/h (2 Bft)
24.10.2014 21:14 12,2 C 10,0 C 87 % 1017,4 hPa 0,0 l/m 0 min 0 min 0 W/m 10,5 km/h (2 Bft)
24.10.2014 21:16 12,2 C 10,0 C 87 % 1017,4 hPa 0,0 l/m 0 min 0 min 0 W/m 12,6 km/h (3 Bft)
24.10.2014 21:18 12,2 C 10,0 C 87 % 1017,3 hPa 0,0 l/m 0 min 0 min 0 W/m 6,3 km/h (2 Bft)
24.10.2014 21:20 12,2 C 10,0 C 87 % 1017,4 hPa 0,0 l/m 0 min 0 min 0 W/m 8,4 km/h (2 Bft)
24.10.2014 21:22 12,1 C 10,0 C 87 % 1017,4 hPa 0,0 l/m 0 min 0 min 0 W/m 8,4 km/h (2 Bft)
24.10.2014 21:24 12,1 C 10,0 C 87 % 1017,4 hPa 0,0 l/m 0 min 0 min 0 W/m 12,6 km/h (3 Bft)
24.10.2014 21:26 12,1 C 10,0 C 87 % 1017,4 hPa 0,0 l/m 0 min 0 min 0 W/m 8,4 km/h (2 Bft)
24.10.2014 21:28 12,1 C 10,0 C 87 % 1017,4 hPa 0,0 l/m 0 min 0 min 0 W/m 8,4 km/h (2 Bft)
24.10.2014 21:30 12,1 C 10,0 C 87 % 1017,4 hPa 0,0 l/m 0 min 0 min 0 W/m 8,4 km/h (2 Bft)
24.10.2014 21:32 12,1 C 9,4 C 87 % 1017,3 hPa 0,0 l/m 0 min 0 min 0 W/m 10,5 km/h (2 Bft)
24.10.2014 21:34 12,1 C 9,4 C 87 % 1017,3 hPa 0,0 l/m 0 min 0 min 0 W/m 8,4 km/h (2 Bft)
24.10.2014 21:36 12,0 C 9,4 C 87 % 1017,3 hPa 0,0 l/m 0 min 0 min 0 W/m 8,4 km/h (2 Bft)
24.10.2014 21:38 12,0 C 9,4 C 87 % 1017,3 hPa 0,0 l/m 0 min 0 min 0 W/m 8,4 km/h (2 Bft)
24.10.2014 21:40 12,0 C 9,4 C 87 % 1017,3 hPa 0,0 l/m 0 min 0 min 0 W/m 6,3 km/h (2 Bft)
24.10.2014 21:42 11,9 C 9,4 C 88 % 1017,3 hPa 0,0 l/m 0 min 0 min 0 W/m 8,4 km/h (2 Bft)
24.10.2014 21:44 11,9 C 9,4 C 88 % 1017,3 hPa 0,0 l/m 0 min 0 min 0 W/m 10,5 km/h (2 Bft)
24.10.2014 21:46 11,9 C 9,4 C 88 % 1017,3 hPa 0,0 l/m 0 min 0 min 0 W/m 8,4 km/h (2 Bft)
24.10.2014 21:48 11,9 C 9,4 C 88 % 1017,3 hPa 0,0 l/m 0 min 0 min 0 W/m 8,4 km/h (2 Bft)
24.10.2014 21:50 11,9 C 9,4 C 88 % 1017,3 hPa 0,0 l/m 0 min 0 min 0 W/m 6,3 km/h (2 Bft)
24.10.2014 21:52 11,8 C 10,0 C 88 % 1017,4 hPa 0,0 l/m 0 min 0 min 0 W/m 10,5 km/h (2 Bft)
24.10.2014 21:54 11,8 C 10,0 C 88 % 1017,4 hPa 0,0 l/m 0 min 0 min 0 W/m 6,3 km/h (2 Bft)
24.10.2014 21:56 11,8 C 10,0 C 88 % 1017,4 hPa 0,0 l/m 0 min 0 min 0 W/m 6,3 km/h (2 Bft)
24.10.2014 21:58 11,8 C 10,0 C 88 % 1017,5 hPa 0,0 l/m 0 min 0 min 0 W/m 10,5 km/h (2 Bft)
24.10.2014 22:00 11,8 C 10,0 C 88 % 1017,5 hPa 0,0 l/m 0 min 0 min 0 W/m 10,5 km/h (2 Bft)
24.10.2014 22:02 11,8 C 10,0 C 88 % 1017,4 hPa 0,0 l/m 0 min 0 min 0 W/m 10,5 km/h (2 Bft)
24.10.2014 22:04 11,8 C 10,0 C 88 % 1017,4 hPa 0,0 l/m 0 min 0 min 0 W/m 8,4 km/h (2 Bft)
24.10.2014 22:06 11,7 C 10,0 C 88 % 1017,4 hPa 0,0 l/m 0 min 0 min 0 W/m 8,4 km/h (2 Bft)
24.10.2014 22:08 11,7 C 10,0 C 88 % 1017,4 hPa 0,0 l/m 0 min 0 min 0 W/m 6,3 km/h (2 Bft)
24.10.2014 22:10 11,7 C 10,0 C 88 % 1017,5 hPa 0,0 l/m 0 min 0 min 0 W/m 8,4 km/h (2 Bft)
24.10.2014 22:12 11,7 C 10,0 C 88 % 1017,6 hPa 0,0 l/m 0 min 0 min 0 W/m 8,4 km/h (2 Bft)
24.10.2014 22:14 11,7 C 10,0 C 88 % 1017,6 hPa 0,0 l/m 0 min 0 min 0 W/m 8,4 km/h (2 Bft)
24.10.2014 22:16 11,7 C 10,0 C 88 % 1017,6 hPa 0,0 l/m 0 min 0 min 0 W/m 8,4 km/h (2 Bft)
24.10.2014 22:18 11,7 C 10,0 C 88 % 1017,6 hPa 0,0 l/m 0 min 0 min 0 W/m 10,5 km/h (2 Bft)
24.10.2014 22:20 11,7 C 10,0 C 88 % 1017,6 hPa 0,0 l/m 0 min 0 min 0 W/m 8,4 km/h (2 Bft)
24.10.2014 22:22 11,7 C 10,0 C 89 % 1017,6 hPa 0,0 l/m 0 min 0 min 0 W/m 10,5 km/h (2 Bft)
24.10.2014 22:24 11,7 C 10,0 C 89 % 1017,6 hPa 0,0 l/m 0 min 0 min 0 W/m 10,5 km/h (2 Bft)
24.10.2014 22:26 11,6 C 10,0 C 89 % 1017,6 hPa 0,0 l/m 0 min 0 min 0 W/m 10,5 km/h (2 Bft)
24.10.2014 22:28 11,6 C 10,0 C 89 % 1017,6 hPa 0,0 l/m 0 min 0 min 0 W/m 10,5 km/h (2 Bft)
24.10.2014 22:30 11,6 C 10,0 C 89 % 1017,6 hPa 0,0 l/m 0 min 0 min 0 W/m 8,4 km/h (2 Bft)
24.10.2014 22:32 11,6 C 10,0 C 89 % 1017,6 hPa 0,0 l/m 0 min 0 min 0 W/m 10,5 km/h (2 Bft)
24.10.2014 22:34 11,6 C 10,0 C 89 % 1017,6 hPa 0,0 l/m 0 min 0 min 0 W/m 10,5 km/h (2 Bft)
24.10.2014 22:36 11,6 C 10,0 C 89 % 1017,6 hPa 0,0 l/m 0 min 0 min 0 W/m 12,6 km/h (3 Bft)
24.10.2014 22:38 11,6 C 10,0 C 89 % 1017,7 hPa 0,0 l/m 0 min 0 min 0 W/m 10,5 km/h (2 Bft)
24.10.2014 22:40 11,6 C 10,6 C 89 % 1017,6 hPa 0,0 l/m 0 min 0 min 0 W/m 12,6 km/h (3 Bft)
24.10.2014 22:42 11,6 C 10,6 C 89 % 1017,7 hPa 0,0 l/m 0 min 0 min 0 W/m 10,5 km/h (2 Bft)
24.10.2014 22:44 11,6 C 10,6 C 89 % 1017,6 hPa 0,0 l/m 0 min 0 min 0 W/m 10,5 km/h (2 Bft)
24.10.2014 22:46 11,6 C 10,6 C 89 % 1017,6 hPa 0,0 l/m 0 min 0 min 0 W/m 8,4 km/h (2 Bft)
24.10.2014 22:48 11,6 C 10,6 C 89 % 1017,6 hPa 0,0 l/m 0 min 0 min 0 W/m 8,4 km/h (2 Bft)
24.10.2014 22:50 11,6 C 10,6 C 89 % 1017,6 hPa 0,0 l/m 0 min 0 min 0 W/m 10,5 km/h (2 Bft)
24.10.2014 22:52 11,6 C 10,6 C 89 % 1017,6 hPa 0,0 l/m 0 min 0 min 0 W/m 10,5 km/h (2 Bft)
24.10.2014 22:54 11,6 C 10,6 C 89 % 1017,6 hPa 0,0 l/m 0 min 0 min 0 W/m 6,3 km/h (2 Bft)
24.10.2014 22:56 11,6 C 10,6 C 89 % 1017,6 hPa 0,0 l/m 0 min 0 min 0 W/m 10,5 km/h (2 Bft)
24.10.2014 22:58 11,6 C 10,6 C 89 % 1017,6 hPa 0,0 l/m 0 min 0 min 0 W/m 12,6 km/h (3 Bft)
24.10.2014 23:00 11,6 C 10,6 C 89 % 1017,6 hPa 0,0 l/m 0 min 0 min 0 W/m 8,4 km/h (2 Bft)
24.10.2014 23:02 11,6 C 10,6 C 89 % 1017,6 hPa 0,0 l/m 0 min 0 min 0 W/m 10,5 km/h (2 Bft)
24.10.2014 23:04 11,6 C 10,6 C 89 % 1017,6 hPa 0,0 l/m 0 min 0 min 0 W/m 10,5 km/h (2 Bft)
24.10.2014 23:06 11,6 C 10,6 C 89 % 1017,6 hPa 0,0 l/m 0 min 0 min 0 W/m 12,6 km/h (3 Bft)
24.10.2014 23:08 11,6 C 10,6 C 89 % 1017,6 hPa 0,0 l/m 0 min 0 min 0 W/m 8,4 km/h (2 Bft)
24.10.2014 23:10 11,6 C 10,6 C 89 % 1017,6 hPa 0,0 l/m 0 min 0 min 0 W/m 8,4 km/h (2 Bft)
24.10.2014 23:12 11,6 C 10,6 C 89 % 1017,5 hPa 0,0 l/m 0 min 0 min 0 W/m 6,3 km/h (2 Bft)
24.10.2014 23:14 11,6 C 10,6 C 89 % 1017,5 hPa 0,0 l/m 0 min 0 min 0 W/m 12,6 km/h (3 Bft)
24.10.2014 23:16 11,6 C 10,0 C 89 % 1017,5 hPa 0,0 l/m 0 min 0 min 0 W/m 6,3 km/h (2 Bft)
24.10.2014 23:18 11,6 C 10,0 C 89 % 1017,5 hPa 0,0 l/m 0 min 0 min 0 W/m 6,3 km/h (2 Bft)
24.10.2014 23:20 11,6 C 10,0 C 89 % 1017,4 hPa 0,0 l/m 0 min 0 min 0 W/m 8,4 km/h (2 Bft)
24.10.2014 23:22 11,6 C 10,0 C 89 % 1017,5 hPa 0,0 l/m 0 min 0 min 0 W/m 10,5 km/h (2 Bft)
24.10.2014 23:24 11,6 C 10,0 C 89 % 1017,5 hPa 0,0 l/m 0 min 0 min 0 W/m 8,4 km/h (2 Bft)
24.10.2014 23:26 11,5 C 10,0 C 89 % 1017,5 hPa 0,0 l/m 0 min 0 min 0 W/m 6,3 km/h (2 Bft)
24.10.2014 23:28 11,5 C 10,0 C 89 % 1017,6 hPa 0,0 l/m 0 min 0 min 0 W/m 8,4 km/h (2 Bft)
24.10.2014 23:30 11,5 C 10,0 C 88 % 1017,6 hPa 0,0 l/m 0 min 0 min 0 W/m 10,5 km/h (2 Bft)
24.10.2014 23:32 11,5 C 10,0 C 89 % 1017,6 hPa 0,0 l/m 0 min 0 min 0 W/m 10,5 km/h (2 Bft)
24.10.2014 23:34 11,5 C 10,0 C 89 % 1017,6 hPa 0,0 l/m 0 min 0 min 0 W/m 12,6 km/h (3 Bft)
24.10.2014 23:36 11,5 C 10,0 C 89 % 1017,6 hPa 0,0 l/m 0 min 0 min 0 W/m 10,5 km/h (2 Bft)
24.10.2014 23:38 11,5 C 10,0 C 89 % 1017,6 hPa 0,0 l/m 0 min 0 min 0 W/m 8,4 km/h (2 Bft)
24.10.2014 23:40 11,5 C 10,0 C 89 % 1017,6 hPa 0,0 l/m 0 min 0 min 0 W/m 14,6 km/h (3 Bft)
24.10.2014 23:42 11,5 C 10,0 C 89 % 1017,6 hPa 0,0 l/m 0 min 0 min 0 W/m 12,6 km/h (3 Bft)
24.10.2014 23:44 11,5 C 10,6 C 89 % 1017,6 hPa 0,0 l/m 0 min 0 min 0 W/m 10,5 km/h (2 Bft)
24.10.2014 23:46 11,4 C 10,6 C 89 % 1017,5 hPa 0,0 l/m 0 min 0 min 0 W/m 12,6 km/h (3 Bft)
24.10.2014 23:48 11,4 C 10,6 C 89 % 1017,6 hPa 0,0 l/m 0 min 0 min 0 W/m 10,5 km/h (2 Bft)
24.10.2014 23:50 11,4 C 10,6 C 89 % 1017,5 hPa 0,0 l/m 0 min 0 min 0 W/m 14,6 km/h (3 Bft)
24.10.2014 23:52 11,4 C 10,6 C 89 % 1017,5 hPa 0,0 l/m 0 min 0 min 0 W/m 10,5 km/h (2 Bft)
24.10.2014 23:54 11,4 C 10,0 C 89 % 1017,5 hPa 0,0 l/m 0 min 0 min 0 W/m 10,5 km/h (2 Bft)
24.10.2014 23:56 11,4 C 10,0 C 89 % 1017,5 hPa 0,0 l/m 0 min 0 min 0 W/m 8,4 km/h (2 Bft)
24.10.2014 23:58 11,4 C 10,0 C 89 % 1017,5 hPa 0,0 l/m 0 min 0 min 0 W/m 6,3 km/h (2 Bft)
_ Min-Zeit 09:10 08:30 13:38 20:48 - - - - 00:50
Minimum _ 10,4 C 8,9 C 77 % 1017,3 hPa - - - - 6,3 km/h (2 Bft)
_ Max-Zeit 14:16 14:10 09:36 00:00 00:00 09:16 00:00 12:10 13:08
Maximum _ 14,1 C 13,9 C 92 % 1022,2 hPa 0,0 l/m 2 min 0 min 244 W/m 31,4 km/h
S (5 Bft)
Durchschnitt _ 12,2 C 11,1 C 86 % 1019,7 hPa #0,0 l/m #38 min. #0 min. 116 W/m 13,7 km/h (3 Bft)
© 2014 W. Hausmann